Observation data for Amarillo 15 North Northwest on 12/09/2018      Previous  Date       Current Mesonet Observations  Soil Data  Daily Summary Page  Observations in Plain Language
KAM3 090600Z 22004KT M04/M08 A3031 RMK A01 T10441078  RH  077%=      5-min Rain = 0
KAM3 090601Z 22004KT M04/M08 A3031 RMK A01 T10441078  RH  077%=      5-min Rain = 0
KAM3 090602Z 21004KT M04/M08 A3031 RMK A01 T10441079  RH  077%=      5-min Rain = 0
KAM3 090603Z 21004KT M04/M08 A3031 RMK A01 T10431078  RH  077%=      5-min Rain = 0
KAM3 090604Z 21004KT M04/M08 A3031 RMK A01 T10431078  RH  076%=      5-min Rain = 0
KAM3 090605Z 21004KT M04/M08 A3031 RMK A01 T10421078  RH  076%=      5-min Rain = 0
KAM3 090606Z 22004KT M04/M08 A3031 RMK A01 T10431079  RH  076%=      5-min Rain = 0
KAM3 090607Z 23004KT M04/M08 A3031 RMK A01 T10421078  RH  076%=      5-min Rain = 0
KAM3 090608Z 23004KT M04/M08 A3031 RMK A01 T10431079  RH  076%=      5-min Rain = 0
KAM3 090609Z 24004KT M04/M08 A3031 RMK A01 T10421079  RH  076%=      5-min Rain = 0
KAM3 090610Z 24004KT M04/M08 A3031 RMK A01 T10421079  RH  076%=      5-min Rain = 0
KAM3 090611Z 25004KT M04/M08 A3031 RMK A01 T10431079  RH  076%=      5-min Rain = 0
KAM3 090612Z 25004KT M04/M08 A3031 RMK A01 T10441080  RH  076%=      5-min Rain = 0
KAM3 090613Z 25004KT M05/M08 A3031 RMK A01 T10451081  RH  076%=      5-min Rain = 0
KAM3 090614Z 24004KT M05/M08 A3031 RMK A01 T10471081  RH  077%=      5-min Rain = 0
KAM3 090615Z 24004KT M05/M08 A3031 RMK A01 T10471081  RH  077%=      5-min Rain = 0
KAM3 090616Z 24004KT M05/M08 A3031 RMK A01 T10481081  RH  077%=      5-min Rain = 0
KAM3 090617Z 24004KT M05/M08 A3031 RMK A01 T10481081  RH  078%=      5-min Rain = 0
KAM3 090618Z 24004KT M05/M08 A3031 RMK A01 T10481080  RH  078%=      5-min Rain = 0
KAM3 090619Z 24004KT M05/M08 A3031 RMK A01 T10481080  RH  078%=      5-min Rain = 0
KAM3 090620Z 24004KT M05/M08 A3032 RMK A01 T10481080  RH  078%=      5-min Rain = 0
KAM3 090621Z 24004KT M05/M08 A3032 RMK A01 T10481081  RH  078%=      5-min Rain = 0
KAM3 090622Z 24004KT M05/M08 A3032 RMK A01 T10481081  RH  078%=      5-min Rain = 0
KAM3 090623Z 24004KT M05/M08 A3032 RMK A01 T10491081  RH  078%=      5-min Rain = 0
KAM3 090624Z 24004KT M05/M08 A3032 RMK A01 T10491081  RH  078%=      5-min Rain = 0
KAM3 090625Z 25004KT M05/M08 A3031 RMK A01 T10491081  RH  078%=      5-min Rain = 0
KAM3 090626Z 26003KT M05/M08 A3031 RMK A01 T10491080  RH  079%=      5-min Rain = 0
KAM3 090627Z 27003KT M05/M08 A3031 RMK A01 T10481079  RH  079%=      5-min Rain = 0
KAM3 090628Z 27003KT M05/M08 A3031 RMK A01 T10471079  RH  078%=      5-min Rain = 0
KAM3 090629Z 27003KT M05/M08 A3031 RMK A01 T10461079  RH  078%=      5-min Rain = 0
KAM3 090630Z 28003KT M05/M08 A3031 RMK A01 T10451078  RH  078%=      5-min Rain = 0
KAM3 090631Z 28003KT M04/M08 A3031 RMK A01 T10441078  RH  077%=      5-min Rain = 0
KAM3 090632Z 28003KT M04/M08 A3031 RMK A01 T10441078  RH  077%=      5-min Rain = 0
KAM3 090633Z 28003KT M04/M08 A3031 RMK A01 T10441078  RH  077%=      5-min Rain = 0
KAM3 090634Z 29003KT M04/M08 A3031 RMK A01 T10441079  RH  076%=      5-min Rain = 0
KAM3 090635Z 29003KT M04/M08 A3031 RMK A01 T10431079  RH  076%=      5-min Rain = 0
KAM3 090636Z 29003KT M04/M08 A3031 RMK A01 T10441079  RH  076%=      5-min Rain = 0
KAM3 090637Z 29003KT M04/M08 A3031 RMK A01 T10441079  RH  076%=      5-min Rain = 0
KAM3 090638Z 29003KT M04/M08 A3031 RMK A01 T10441079  RH  076%=      5-min Rain = 0
KAM3 090639Z 29003KT M04/M08 A3031 RMK A01 T10441079  RH  076%=      5-min Rain = 0
KAM3 090640Z 29002KT M05/M08 A3031 RMK A01 T10451081  RH  076%=      5-min Rain = 0
KAM3 090641Z 29002KT M05/M08 A3031 RMK A01 T10461081  RH  077%=      5-min Rain = 0
KAM3 090642Z 29002KT M05/M08 A3031 RMK A01 T10461080  RH  077%=      5-min Rain = 0
KAM3 090643Z 29001KT M05/M08 A3031 RMK A01 T10471080  RH  077%=      5-min Rain = 0
KAM3 090644Z 29001KT M05/M08 A3031 RMK A01 T10471080  RH  078%=      5-min Rain = 0
KAM3 090645Z 29001KT M05/M08 A3031 RMK A01 T10471080  RH  078%=      5-min Rain = 0
KAM3 090646Z 29001KT M05/M08 A3031 RMK A01 T10471080  RH  077%=      5-min Rain = 0
KAM3 090647Z 29002KT M05/M08 A3031 RMK A01 T10481081  RH  077%=      5-min Rain = 0
KAM3 090648Z 29002KT M05/M08 A3031 RMK A01 T10491082  RH  077%=      5-min Rain = 0
KAM3 090649Z 29002KT M05/M08 A3031 RMK A01 T10511083  RH  078%=      5-min Rain = 0
KAM3 090650Z 29002KT M05/M08 A3031 RMK A01 T10511083  RH  078%=      5-min Rain = 0
KAM3 090651Z 29002KT M05/M08 A3031 RMK A01 T10521084  RH  079%=      5-min Rain = 0
KAM3 090652Z 29002KT M05/M08 A3031 RMK A01 T10531084  RH  079%=      5-min Rain = 0
KAM3 090653Z 29002KT M05/M08 A3031 RMK A01 T10541083  RH  080%=      5-min Rain = 0
KAM3 090654Z 29002KT M05/M08 A3031 RMK A01 T10531082  RH  080%=      5-min Rain = 0
KAM3 090655Z 29002KT M05/M08 A3031 RMK A01 T10531081  RH  080%=      5-min Rain = 0
KAM3 090656Z 29002KT M05/M08 A3031 RMK A01 T10521080  RH  080%=      5-min Rain = 0
KAM3 090657Z 29002KT M05/M08 A3031 RMK A01 T10501080  RH  080%=      5-min Rain = 0
KAM3 090658Z 29002KT M05/M08 A3031 RMK A01 T10491080  RH  079%=      5-min Rain = 0
KAM3 090659Z 29002KT M05/M08 A3031 RMK A01 T10491080  RH  079%=      5-min Rain = 0
KAM3 090700Z 29002KT M05/M08 A3031 RMK A01 T10491081  RH  078%=      5-min Rain = 0
KAM3 090701Z 29002KT M05/M08 A3031 RMK A01 T10491081  RH  078%=      5-min Rain = 0
KAM3 090702Z 29001KT M05/M08 A3031 RMK A01 T10491081  RH  078%=      5-min Rain = 0
KAM3 090703Z 29001KT M05/M08 A3031 RMK A01 T10491082  RH  078%=      5-min Rain = 0
KAM3 090704Z 29000KT M05/M08 A3031 RMK A01 T10501082  RH  078%=      5-min Rain = 0
KAM3 090705Z 00000KT M05/M08 A3031 RMK A01 T10511082  RH  079%=      5-min Rain = 0
KAM3 090706Z 00000KT M05/M08 A3031 RMK A01 T10521083  RH  079%=      5-min Rain = 0
KAM3 090707Z 23000KT M05/M08 A3031 RMK A01 T10521083  RH  079%=      5-min Rain = 0
KAM3 090708Z 23002KT M05/M08 A3031 RMK A01 T10521082  RH  080%=      5-min Rain = 0
KAM3 090709Z 23002KT M05/M08 A3031 RMK A01 T10521082  RH  080%=      5-min Rain = 0
KAM3 090710Z 23002KT M05/M08 A303 RMK A01 T10531083  RH  079%=      5-min Rain = 0
KAM3 090711Z 23002KT M05/M08 A303 RMK A01 T10541084  RH  079%=      5-min Rain = 0
KAM3 090712Z 22003KT M05/M08 A303 RMK A01 T10541083  RH  080%=      5-min Rain = 0
KAM3 090713Z 21004KT M05/M08 A303 RMK A01 T10541083  RH  080%=      5-min Rain = 0
KAM3 090714Z 21004KT M06/M08 A303 RMK A01 T10551084  RH  080%=      5-min Rain = 0
KAM3 090715Z 21005KT M06/M09 A303 RMK A01 T10561085  RH  080%=      5-min Rain = 0
KAM3 090716Z 21005KT M06/M09 A303 RMK A01 T10571085  RH  080%=      5-min Rain = 0
KAM3 090717Z 21004KT M06/M09 A303 RMK A01 T10581086  RH  081%=      5-min Rain = 0
KAM3 090718Z 21004KT M06/M09 A303 RMK A01 T10591087  RH  081%=      5-min Rain = 0
KAM3 090719Z 21004KT M06/M09 A303 RMK A01 T10591086  RH  081%=      5-min Rain = 0
KAM3 090720Z 21004KT M06/M09 A3031 RMK A01 T10591085  RH  082%=      5-min Rain = 0
KAM3 090721Z 22003KT M06/M08 A3031 RMK A01 T10591084  RH  083%=      5-min Rain = 0
KAM3 090722Z 22003KT M06/M08 A3031 RMK A01 T10581083  RH  083%=      5-min Rain = 0
KAM3 090723Z 23003KT M06/M08 A3031 RMK A01 T10571082  RH  082%=      5-min Rain = 0
KAM3 090724Z 24003KT M06/M08 A3031 RMK A01 T10561082  RH  082%=      5-min Rain = 0
KAM3 090725Z 24003KT M06/M08 A3031 RMK A01 T10561082  RH  082%=      5-min Rain = 0
KAM3 090726Z 24003KT M06/M08 A3031 RMK A01 T10551082  RH  082%=      5-min Rain = 0
KAM3 090727Z 25003KT M06/M08 A3031 RMK A01 T10551082  RH  081%=      5-min Rain = 0
KAM3 090728Z 25003KT M05/M08 A3031 RMK A01 T10541081  RH  081%=      5-min Rain = 0
KAM3 090729Z 25002KT M05/M08 A3031 RMK A01 T10531081  RH  081%=      5-min Rain = 0
KAM3 090730Z 26002KT M05/M08 A3031 RMK A01 T10531081  RH  081%=      5-min Rain = 0
KAM3 090731Z 27002KT M05/M08 A303 RMK A01 T10521081  RH  080%=      5-min Rain = 0
KAM3 090732Z 27002KT M05/M08 A303 RMK A01 T10511081  RH  080%=      5-min Rain = 0
KAM3 090733Z 27002KT M05/M08 A303 RMK A01 T10511080  RH  080%=      5-min Rain = 0
KAM3 090734Z 28002KT M05/M08 A303 RMK A01 T10501081  RH  079%=      5-min Rain = 0
KAM3 090735Z 28002KT M05/M08 A303 RMK A01 T10491080  RH  079%=      5-min Rain = 0
KAM3 090736Z 28002KT M05/M08 A303 RMK A01 T10481080  RH  079%=      5-min Rain = 0
KAM3 090737Z 28003KT M05/M08 A303 RMK A01 T10471079  RH  078%=      5-min Rain = 0
KAM3 090738Z 28003KT M05/M08 A303 RMK A01 T10471079  RH  078%=      5-min Rain = 0
KAM3 090739Z 29003KT M05/M08 A303 RMK A01 T10461080  RH  077%=      5-min Rain = 0
KAM3 090740Z 29003KT M05/M08 A303 RMK A01 T10451079  RH  077%=      5-min Rain = 0
KAM3 090741Z 29003KT M04/M08 A303 RMK A01 T10441079  RH  077%=      5-min Rain = 0
KAM3 090742Z 29003KT M04/M08 A303 RMK A01 T10441079  RH  076%=      5-min Rain = 0
KAM3 090743Z 29003KT M04/M08 A303 RMK A01 T10441080  RH  076%=      5-min Rain = 0
KAM3 090744Z 29004KT M04/M08 A3031 RMK A01 T10441080  RH  076%=      5-min Rain = 0
KAM3 090745Z 29004KT M04/M08 A3031 RMK A01 T10431080  RH  076%=      5-min Rain = 0
KAM3 090746Z 29004KT M04/M08 A3031 RMK A01 T10431080  RH  075%=      5-min Rain = 0
KAM3 090747Z 29004KT M04/M08 A3031 RMK A01 T10441081  RH  075%=      5-min Rain = 0
KAM3 090748Z 29004KT M04/M08 A3031 RMK A01 T10441081  RH  076%=      5-min Rain = 0
KAM3 090749Z 29004KT M05/M08 A3031 RMK A01 T10451081  RH  076%=      5-min Rain = 0
KAM3 090750Z 29004KT M05/M08 A3031 RMK A01 T10461081  RH  076%=      5-min Rain = 0
KAM3 090751Z 29004KT M05/M08 A3031 RMK A01 T10461081  RH  076%=      5-min Rain = 0
KAM3 090752Z 29004KT M05/M08 A3031 RMK A01 T10461081  RH  077%=      5-min Rain = 0
KAM3 090753Z 29004KT M05/M08 A3031 RMK A01 T10471081  RH  077%=      5-min Rain = 0
KAM3 090754Z 29004KT M05/M08 A3031 RMK A01 T10471081  RH  077%=      5-min Rain = 0
KAM3 090755Z 29004KT M05/M08 A3031 RMK A01 T10471081  RH  077%=      5-min Rain = 0
KAM3 090756Z 29004KT M05/M08 A3031 RMK A01 T10481081  RH  077%=      5-min Rain = 0
KAM3 090757Z 29004KT M05/M08 A3031 RMK A01 T10481081  RH  078%=      5-min Rain = 0
KAM3 090758Z 29005KT M05/M08 A3031 RMK A01 T10491081  RH  078%=      5-min Rain = 0
KAM3 090759Z 29005KT M05/M08 A3031 RMK A01 T10491081  RH  078%=      5-min Rain = 0
KAM3 090800Z 29005KT M05/M08 A3031 RMK A01 T10491081  RH  078%=      5-min Rain = 0
KAM3 090801Z 29005KT M05/M08 A3031 RMK A01 T10491081  RH  078%=      5-min Rain = 0
KAM3 090802Z 29005KT M05/M08 A3031 RMK A01 T10491081  RH  078%=      5-min Rain = 0
KAM3 090803Z 29004KT M05/M08 A3031 RMK A01 T10501082  RH  078%=      5-min Rain = 0
KAM3 090804Z 28004KT M05/M08 A3031 RMK A01 T10501082  RH  079%=      5-min Rain = 0
KAM3 090805Z 28004KT M05/M08 A3031 RMK A01 T10501082  RH  079%=      5-min Rain = 0
KAM3 090806Z 28004KT M05/M08 A3031 RMK A01 T10511082  RH  079%=      5-min Rain = 0
KAM3 090807Z 28003KT M05/M08 A3031 RMK A01 T10511081  RH  079%=      5-min Rain = 0
KAM3 090808Z 28003KT M05/M08 A3031 RMK A01 T10511081  RH  079%=      5-min Rain = 0
KAM3 090809Z 27003KT M05/M08 A3031 RMK A01 T10521083  RH  079%=      5-min Rain = 0
KAM3 090810Z 27003KT M05/M09 A3031 RMK A01 T10541085  RH  079%=      5-min Rain = 0
KAM3 090811Z 26003KT M06/M09 A3031 RMK A01 T10561085  RH  080%=      5-min Rain = 0
KAM3 090812Z 26003KT M06/M09 A3031 RMK A01 T10571086  RH  080%=      5-min Rain = 0
KAM3 090813Z 26003KT M06/M09 A3031 RMK A01 T10581086  RH  081%=      5-min Rain = 0
KAM3 090814Z 26003KT M06/M09 A303 RMK A01 T10591086  RH  081%=      5-min Rain = 0
KAM3 090815Z 26003KT M06/M08 A303 RMK A01 T10581084  RH  082%=      5-min Rain = 0
KAM3 090816Z 26003KT M06/M08 A303 RMK A01 T10581084  RH  082%=      5-min Rain = 0
KAM3 090817Z 26003KT M06/M08 A303 RMK A01 T10581083  RH  082%=      5-min Rain = 0
KAM3 090818Z 26003KT M06/M08 A303 RMK A01 T10561082  RH  082%=      5-min Rain = 0
KAM3 090819Z 26003KT M06/M08 A3031 RMK A01 T10561083  RH  082%=      5-min Rain = 0
KAM3 090820Z 26003KT M06/M08 A3031 RMK A01 T10561084  RH  081%=      5-min Rain = 0
KAM3 090821Z 26003KT M06/M08 A3031 RMK A01 T10571084  RH  081%=      5-min Rain = 0
KAM3 090822Z 26003KT M06/M09 A3031 RMK A01 T10571085  RH  081%=      5-min Rain = 0
KAM3 090823Z 26003KT M06/M09 A3031 RMK A01 T10581085  RH  081%=      5-min Rain = 0
KAM3 090824Z 26003KT M06/M09 A3031 RMK A01 T10581085  RH  082%=      5-min Rain = 0
KAM3 090825Z 26003KT M06/M09 A3031 RMK A01 T10591085  RH  082%=      5-min Rain = 0
KAM3 090826Z 26003KT M06/M09 A3031 RMK A01 T10591085  RH  082%=      5-min Rain = 0
KAM3 090827Z 26003KT M06/M09 A3031 RMK A01 T10601085  RH  083%=      5-min Rain = 0
KAM3 090828Z 26003KT M06/M08 A3031 RMK A01 T10601084  RH  083%=      5-min Rain = 0
KAM3 090829Z 26003KT M06/M09 A3031 RMK A01 T10601085  RH  083%=      5-min Rain = 0
KAM3 090830Z 26003KT M06/M08 A3031 RMK A01 T10601084  RH  083%=      5-min Rain = 0
KAM3 090831Z 26003KT M06/M08 A3031 RMK A01 T10601084  RH  083%=      5-min Rain = 0
KAM3 090832Z 26004KT M06/M08 A3031 RMK A01 T10591083  RH  083%=      5-min Rain = 0
KAM3 090833Z 26004KT M06/M08 A3031 RMK A01 T10571082  RH  083%=      5-min Rain = 0
KAM3 090834Z 26004KT M06/M08 A3031 RMK A01 T10561081  RH  082%=      5-min Rain = 0
KAM3 090835Z 26004KT M06/M08 A3031 RMK A01 T10551082  RH  082%=      5-min Rain = 0
KAM3 090836Z 26004KT M06/M08 A3031 RMK A01 T10551082  RH  081%=      5-min Rain = 0
KAM3 090837Z 26004KT M06/M08 A3031 RMK A01 T10551083  RH  081%=      5-min Rain = 0
KAM3 090838Z 26004KT M06/M08 A3031 RMK A01 T10551083  RH  081%=      5-min Rain = 0
KAM3 090839Z 26004KT M06/M08 A3031 RMK A01 T10551083  RH  080%=      5-min Rain = 0
KAM3 090840Z 26004KT M06/M08 A3031 RMK A01 T10551083  RH  080%=      5-min Rain = 0
KAM3 090841Z 26005KT M06/M08 A3031 RMK A01 T10551084  RH  080%=      5-min Rain = 0
KAM3 090842Z 26004KT M06/M08 A3031 RMK A01 T10551084  RH  080%=      5-min Rain = 0
KAM3 090843Z 27004KT M06/M08 A3031 RMK A01 T10561084  RH  080%=      5-min Rain = 0
KAM3 090844Z 27004KT M06/M08 A3031 RMK A01 T10561084  RH  081%=      5-min Rain = 0
KAM3 090845Z 27004KT M06/M08 A3031 RMK A01 T10561084  RH  081%=      5-min Rain = 0
KAM3 090846Z 27004KT M06/M08 A3031 RMK A01 T10561084  RH  081%=      5-min Rain = 0
KAM3 090847Z 27004KT M06/M08 A3031 RMK A01 T10561084  RH  081%=      5-min Rain = 0
KAM3 090848Z 27005KT M06/M08 A3031 RMK A01 T10561083  RH  081%=      5-min Rain = 0
KAM3 090849Z 27005KT M06/M08 A3031 RMK A01 T10561083  RH  081%=      5-min Rain = 0
KAM3 090850Z 27005KT M06/M08 A3031 RMK A01 T10561083  RH  081%=      5-min Rain = 0
KAM3 090851Z 27005KT M06/M08 A3031 RMK A01 T10561083  RH  081%=      5-min Rain = 0
KAM3 090852Z 27005KT M06/M08 A3031 RMK A01 T10561083  RH  081%=      5-min Rain = 0
KAM3 090853Z 27005KT M06/M08 A3031 RMK A01 T10561083  RH  081%=      5-min Rain = 0
KAM3 090854Z 27005KT M06/M08 A3031 RMK A01 T10561083  RH  081%=      5-min Rain = 0
KAM3 090855Z 27005KT M06/M08 A3031 RMK A01 T10561083  RH  081%=      5-min Rain = 0
KAM3 090856Z 27005KT M06/M08 A3031 RMK A01 T10561083  RH  081%=      5-min Rain = 0
KAM3 090857Z 27005KT M06/M08 A3031 RMK A01 T10571083  RH  082%=      5-min Rain = 0
KAM3 090858Z 27005KT M06/M08 A3031 RMK A01 T10571083  RH  082%=      5-min Rain = 0
KAM3 090859Z 27005KT M06/M08 A3031 RMK A01 T10571083  RH  082%=      5-min Rain = 0
KAM3 090900Z 26005KT M06/M08 A3031 RMK A01 T10581083  RH  082%=      5-min Rain = 0
KAM3 090901Z 26004KT M06/M08 A3031 RMK A01 T10571082  RH  083%=      5-min Rain = 0
KAM3 090902Z 26004KT M06/M08 A3031 RMK A01 T10581082  RH  083%=      5-min Rain = 0
KAM3 090903Z 27004KT M06/M08 A3031 RMK A01 T10581082  RH  083%=      5-min Rain = 0
KAM3 090904Z 26005KT M06/M08 A3031 RMK A01 T10581082  RH  083%=      5-min Rain = 0
KAM3 090905Z 27005KT M06/M08 A3031 RMK A01 T10581082  RH  083%=      5-min Rain = 0
KAM3 090906Z 27006KT M06/M08 A3031 RMK A01 T10581081  RH  084%=      5-min Rain = 0
KAM3 090907Z 27005KT M06/M08 A3031 RMK A01 T10581081  RH  084%=      5-min Rain = 0
KAM3 090908Z 27005KT M06/M08 A3031 RMK A01 T10581080  RH  084%=      5-min Rain = 0
KAM3 090909Z 27005KT M06/M08 A3031 RMK A01 T10581080  RH  084%=      5-min Rain = 0
KAM3 090910Z 27004KT M06/M08 A3031 RMK A01 T10581080  RH  084%=      5-min Rain = 0
KAM3 090911Z 27004KT M06/M08 A3031 RMK A01 T10581080  RH  084%=      5-min Rain = 0
KAM3 090912Z 27004KT M06/M08 A3031 RMK A01 T10571079  RH  084%=      5-min Rain = 0
KAM3 090913Z 27003KT M06/M08 A3031 RMK A01 T10571079  RH  084%=      5-min Rain = 0
KAM3 090914Z 26004KT M06/M08 A3031 RMK A01 T10571079  RH  084%=      5-min Rain = 0
KAM3 090915Z 26004KT M06/M08 A3031 RMK A01 T10571079  RH  084%=      5-min Rain = 0
KAM3 090916Z 26004KT M06/M08 A3031 RMK A01 T10571080  RH  084%=      5-min Rain = 0
KAM3 090917Z 26004KT M06/M08 A3031 RMK A01 T10571080  RH  084%=      5-min Rain = 0
KAM3 090918Z 26003KT M06/M08 A3031 RMK A01 T10571080  RH  084%=      5-min Rain = 0
KAM3 090919Z 26003KT M06/M08 A3031 RMK A01 T10581081  RH  084%=      5-min Rain = 0
KAM3 090920Z 26002KT M06/M08 A3031 RMK A01 T10581081  RH  084%=      5-min Rain = 0
KAM3 090921Z 27002KT M06/M08 A3031 RMK A01 T10581080  RH  084%=      5-min Rain = 0
KAM3 090922Z 27002KT M06/M08 A3031 RMK A01 T10581080  RH  084%=      5-min Rain = 0
KAM3 090923Z 27003KT M06/M08 A3031 RMK A01 T10581080  RH  084%=      5-min Rain = 0
KAM3 090924Z 27003KT M06/M08 A3031 RMK A01 T10571080  RH  084%=      5-min Rain = 0
KAM3 090925Z 26003KT M06/M08 A3031 RMK A01 T10571080  RH  084%=      5-min Rain = 0
KAM3 090926Z 26003KT M06/M08 A3031 RMK A01 T10561080  RH  084%=      5-min Rain = 0
KAM3 090927Z 26003KT M06/M08 A3031 RMK A01 T10561080  RH  083%=      5-min Rain = 0
KAM3 090928Z 25003KT M06/M08 A3031 RMK A01 T10561081  RH  083%=      5-min Rain = 0
KAM3 090929Z 25003KT M06/M08 A3031 RMK A01 T10571081  RH  083%=      5-min Rain = 0
KAM3 090930Z 24003KT M06/M08 A3031 RMK A01 T10571081  RH  084%=      5-min Rain = 0
KAM3 090931Z 24003KT M06/M08 A3031 RMK A01 T10581081  RH  084%=      5-min Rain = 0
KAM3 090932Z 24003KT M06/M08 A3031 RMK A01 T10591081  RH  084%=      5-min Rain = 0
KAM3 090933Z 24003KT M06/M08 A3031 RMK A01 T10591081  RH  084%=      5-min Rain = 0
KAM3 090934Z 24003KT M06/M08 A3031 RMK A01 T10591081  RH  085%=      5-min Rain = 0
KAM3 090935Z 24003KT M06/M08 A3031 RMK A01 T10601081  RH  085%=      5-min Rain = 0
KAM3 090936Z 24003KT M06/M08 A3031 RMK A01 T10601081  RH  085%=      5-min Rain = 0
KAM3 090937Z 24003KT M06/M08 A3031 RMK A01 T10601081  RH  086%=      5-min Rain = 0
KAM3 090938Z 24003KT M06/M08 A3031 RMK A01 T10601080  RH  086%=      5-min Rain = 0
KAM3 090939Z 24003KT M06/M08 A3031 RMK A01 T10611081  RH  086%=      5-min Rain = 0
KAM3 090940Z 24002KT M06/M08 A3031 RMK A01 T10611080  RH  086%=      5-min Rain = 0
KAM3 090941Z 24002KT M06/M08 A3031 RMK A01 T10611080  RH  086%=      5-min Rain = 0
KAM3 090942Z 24002KT M06/M08 A3031 RMK A01 T10611080  RH  087%=      5-min Rain = 0
KAM3 090943Z 24002KT M06/M08 A3031 RMK A01 T10611080  RH  087%=      5-min Rain = 0
KAM3 090944Z 24002KT M06/M08 A3031 RMK A01 T10611079  RH  087%=      5-min Rain = 0
KAM3 090945Z 25003KT M06/M08 A3031 RMK A01 T10601079  RH  087%=      5-min Rain = 0
KAM3 090946Z 26003KT M06/M08 A3031 RMK A01 T10601079  RH  087%=      5-min Rain = 0
KAM3 090947Z 25003KT M06/M08 A3031 RMK A01 T10601079  RH  087%=      5-min Rain = 0
KAM3 090948Z 25003KT M06/M08 A3031 RMK A01 T10591079  RH  086%=      5-min Rain = 0
KAM3 090949Z 25004KT M06/M08 A3031 RMK A01 T10591079  RH  086%=      5-min Rain = 0
KAM3 090950Z 26004KT M06/M08 A3031 RMK A01 T10591079  RH  086%=      5-min Rain = 0
KAM3 090951Z 26004KT M06/M08 A3031 RMK A01 T10591079  RH  086%=      5-min Rain = 0
KAM3 090952Z 25004KT M06/M08 A3031 RMK A01 T10591079  RH  086%=      5-min Rain = 0
KAM3 090953Z 24004KT M06/M08 A3031 RMK A01 T10591079  RH  086%=      5-min Rain = 0
KAM3 090954Z 24004KT M06/M08 A3032 RMK A01 T10591078  RH  086%=      5-min Rain = 0
KAM3 090955Z 24004KT M06/M08 A3032 RMK A01 T10591078  RH  087%=      5-min Rain = 0
KAM3 090956Z 24005KT M06/M08 A3032 RMK A01 T10591077  RH  087%=      5-min Rain = 0
KAM3 090957Z 24005KT M06/M08 A3032 RMK A01 T10591077  RH  087%=      5-min Rain = 0
KAM3 090958Z 24004KT M06/M08 A3032 RMK A01 T10591076  RH  087%=      5-min Rain = 0
KAM3 090959Z 24004KT M06/M08 A3032 RMK A01 T10591076  RH  088%=      5-min Rain = 0
KAM3 091000Z 24004KT M06/M08 A3032 RMK A01 T10591076  RH  088%=      5-min Rain = 0
KAM3 091001Z 24004KT M06/M08 A3032 RMK A01 T10581075  RH  087%=      5-min Rain = 0
KAM3 091002Z 24004KT M06/M08 A3032 RMK A01 T10581075  RH  087%=      5-min Rain = 0
KAM3 091003Z 25005KT M06/M08 A3032 RMK A01 T10581076  RH  087%=      5-min Rain = 0
KAM3 091004Z 25004KT M06/M08 A3032 RMK A01 T10571075  RH  087%=      5-min Rain = 0
KAM3 091005Z 26004KT M06/M08 A3032 RMK A01 T10571075  RH  087%=      5-min Rain = 0
KAM3 091006Z 25004KT M06/M07 A3032 RMK A01 T10561074  RH  087%=      5-min Rain = 0
KAM3 091007Z 25004KT M06/M07 A3032 RMK A01 T10561074  RH  087%=      5-min Rain = 0
KAM3 091008Z 24004KT M06/M07 A3032 RMK A01 T10551074  RH  087%=      5-min Rain = 0
KAM3 091009Z 24004KT M06/M07 A3032 RMK A01 T10551074  RH  086%=      5-min Rain = 0
KAM3 091010Z 24004KT M06/M08 A3032 RMK A01 T10551075  RH  086%=      5-min Rain = 0
KAM3 091011Z 24004KT M06/M07 A3031 RMK A01 T10551074  RH  086%=      5-min Rain = 0
KAM3 091012Z 24004KT M06/M07 A3031 RMK A01 T10551074  RH  086%=      5-min Rain = 0
KAM3 091013Z 24003KT M06/M07 A3031 RMK A01 T10551074  RH  086%=      5-min Rain = 0
KAM3 091014Z 23004KT M06/M07 A3031 RMK A01 T10551074  RH  086%=      5-min Rain = 0
KAM3 091015Z 23004KT M06/M07 A3031 RMK A01 T10551074  RH  086%=      5-min Rain = 0
KAM3 091016Z 24004KT M06/M07 A3031 RMK A01 T10551074  RH  086%=      5-min Rain = 0
KAM3 091017Z 24004KT M06/M07 A3031 RMK A01 T10551074  RH  086%=      5-min Rain = 0
KAM3 091018Z 24004KT M06/M07 A3031 RMK A01 T10551074  RH  086%=      5-min Rain = 0
KAM3 091019Z 25004KT M06/M07 A3031 RMK A01 T10551074  RH  087%=      5-min Rain = 0
KAM3 091020Z 26004KT M06/M07 A3031 RMK A01 T10551074  RH  087%=      5-min Rain = 0
KAM3 091021Z 26004KT M06/M07 A3031 RMK A01 T10551073  RH  087%=      5-min Rain = 0
KAM3 091022Z 25004KT M05/M07 A3031 RMK A01 T10541073  RH  087%=      5-min Rain = 0
KAM3 091023Z 25004KT M05/M07 A3031 RMK A01 T10531072  RH  086%=      5-min Rain = 0
KAM3 091024Z 25004KT M05/M07 A3031 RMK A01 T10521072  RH  086%=      5-min Rain = 0
KAM3 091025Z 26004KT M05/M07 A3031 RMK A01 T10521073  RH  086%=      5-min Rain = 0
KAM3 091026Z 25004KT M05/M07 A3031 RMK A01 T10511072  RH  085%=      5-min Rain = 0
KAM3 091027Z 25003KT M05/M07 A3031 RMK A01 T10521073  RH  085%=      5-min Rain = 0
KAM3 091028Z 26003KT M05/M07 A3031 RMK A01 T10521073  RH  085%=      5-min Rain = 0
KAM3 091029Z 26003KT M05/M07 A3031 RMK A01 T10521073  RH  085%=      5-min Rain = 0
KAM3 091030Z 26003KT M05/M07 A3031 RMK A01 T10511073  RH  085%=      5-min Rain = 0
KAM3 091031Z 26003KT M05/M07 A3031 RMK A01 T10511073  RH  085%=      5-min Rain = 0
KAM3 091032Z 27003KT M05/M07 A3031 RMK A01 T10511073  RH  084%=      5-min Rain = 0
KAM3 091033Z 27003KT M05/M07 A3031 RMK A01 T10511073  RH  084%=      5-min Rain = 0
KAM3 091034Z 27003KT M05/M07 A3031 RMK A01 T10501073  RH  084%=      5-min Rain = 0
KAM3 091035Z 27003KT M05/M07 A3031 RMK A01 T10501074  RH  084%=      5-min Rain = 0
KAM3 091036Z 26003KT M05/M07 A3031 RMK A01 T10501074  RH  083%=      5-min Rain = 0
KAM3 091037Z 26004KT M05/M07 A3031 RMK A01 T10501074  RH  083%=      5-min Rain = 0
KAM3 091038Z 25004KT M05/M07 A3031 RMK A01 T10501074  RH  083%=      5-min Rain = 0
KAM3 091039Z 25004KT M05/M08 A3031 RMK A01 T10501075  RH  083%=      5-min Rain = 0
KAM3 091040Z 24003KT M05/M08 A3031 RMK A01 T10501075  RH  083%=      5-min Rain = 0
KAM3 091041Z 24003KT M05/M08 A3031 RMK A01 T10511075  RH  083%=      5-min Rain = 0
KAM3 091042Z 23003KT M05/M08 A3031 RMK A01 T10511075  RH  083%=      5-min Rain = 0
KAM3 091043Z 23004KT M05/M08 A3031 RMK A01 T10521075  RH  084%=      5-min Rain = 0
KAM3 091044Z 23003KT M05/M08 A3031 RMK A01 T10521075  RH  084%=      5-min Rain = 0
KAM3 091045Z 23003KT M05/M08 A3031 RMK A01 T10531075  RH  084%=      5-min Rain = 0
KAM3 091046Z 23004KT M05/M08 A3031 RMK A01 T10531075  RH  085%=      5-min Rain = 0
KAM3 091047Z 23004KT M05/M08 A3031 RMK A01 T10541076  RH  085%=      5-min Rain = 0
KAM3 091048Z 23004KT M05/M08 A3031 RMK A01 T10541076  RH  085%=      5-min Rain = 0
KAM3 091049Z 23004KT M06/M08 A3031 RMK A01 T10551076  RH  086%=      5-min Rain = 0
KAM3 091050Z 23004KT M06/M08 A3031 RMK A01 T10551075  RH  086%=      5-min Rain = 0
KAM3 091051Z 23004KT M06/M08 A3031 RMK A01 T10561075  RH  086%=      5-min Rain = 0
KAM3 091052Z 23004KT M06/M08 A3031 RMK A01 T10561075  RH  086%=      5-min Rain = 0
KAM3 091053Z 23004KT M06/M08 A3031 RMK A01 T10561075  RH  086%=      5-min Rain = 0
KAM3 091054Z 22004KT M06/M08 A3031 RMK A01 T10561075  RH  087%=      5-min Rain = 0
KAM3 091055Z 22004KT M06/M08 A3031 RMK A01 T10561075  RH  087%=      5-min Rain = 0
KAM3 091056Z 22004KT M06/M08 A3031 RMK A01 T10571076  RH  087%=      5-min Rain = 0
KAM3 091057Z 22004KT M06/M08 A3031 RMK A01 T10581077  RH  087%=      5-min Rain = 0
KAM3 091058Z 22004KT M06/M08 A3031 RMK A01 T10591077  RH  087%=      5-min Rain = 0
KAM3 091059Z 22004KT M06/M08 A3031 RMK A01 T10591077  RH  087%=      5-min Rain = 0
KAM3 091100Z 22004KT M06/M08 A3031 RMK A01 T10601078  RH  087%=      5-min Rain = 0
KAM3 091101Z 22004KT M06/M08 A3031 RMK A01 T10601078  RH  087%=      5-min Rain = 0
KAM3 091102Z 22004KT M06/M08 A3031 RMK A01 T10601078  RH  087%=      5-min Rain = 0
KAM3 091103Z 22004KT M06/M08 A3031 RMK A01 T10611079  RH  087%=      5-min Rain = 0
KAM3 091104Z 22004KT M06/M08 A3031 RMK A01 T10611078  RH  088%=      5-min Rain = 0
KAM3 091105Z 22004KT M06/M08 A3031 RMK A01 T10621078  RH  088%=      5-min Rain = 0
KAM3 091106Z 22004KT M06/M08 A3031 RMK A01 T10621078  RH  088%=      5-min Rain = 0
KAM3 091107Z 22004KT M06/M08 A3031 RMK A01 T10621078  RH  088%=      5-min Rain = 0
KAM3 091108Z 22003KT M06/M08 A3031 RMK A01 T10611078  RH  088%=      5-min Rain = 0
KAM3 091109Z 22004KT M06/M08 A3031 RMK A01 T10611078  RH  088%=      5-min Rain = 0
KAM3 091110Z 23004KT M06/M08 A3031 RMK A01 T10611077  RH  088%=      5-min Rain = 0
KAM3 091111Z 23004KT M06/M08 A3031 RMK A01 T10601077  RH  088%=      5-min Rain = 0
KAM3 091112Z 23004KT M06/M08 A3031 RMK A01 T10601078  RH  088%=      5-min Rain = 0
KAM3 091113Z 23003KT M06/M08 A3031 RMK A01 T10601078  RH  087%=      5-min Rain = 0
KAM3 091114Z 23003KT M06/M08 A3031 RMK A01 T10591077  RH  087%=      5-min Rain = 0
KAM3 091115Z 23003KT M06/M08 A3031 RMK A01 T10601078  RH  087%=      5-min Rain = 0
KAM3 091116Z 23004KT M06/M08 A3031 RMK A01 T10601078  RH  087%=      5-min Rain = 0
KAM3 091117Z 22004KT M06/M08 A3031 RMK A01 T10601078  RH  087%=      5-min Rain = 0
KAM3 091118Z 22004KT M06/M08 A3031 RMK A01 T10601078  RH  087%=      5-min Rain = 0
KAM3 091119Z 22003KT M06/M08 A3031 RMK A01 T10601078  RH  087%=      5-min Rain = 0
KAM3 091120Z 22003KT M06/M08 A3031 RMK A01 T10601078  RH  087%=      5-min Rain = 0
KAM3 091121Z 22003KT M06/M08 A3031 RMK A01 T10601078  RH  087%=      5-min Rain = 0
KAM3 091122Z 22003KT M06/M08 A3031 RMK A01 T10591077  RH  087%=      5-min Rain = 0
KAM3 091123Z 22003KT M06/M08 A3031 RMK A01 T10591076  RH  087%=      5-min Rain = 0
KAM3 091124Z 23003KT M06/M08 A3031 RMK A01 T10581077  RH  087%=      5-min Rain = 0
KAM3 091125Z 23003KT M06/M08 A3031 RMK A01 T10581077  RH  087%=      5-min Rain = 0
KAM3 091126Z 23003KT M06/M08 A3031 RMK A01 T10581077  RH  087%=      5-min Rain = 0
KAM3 091127Z 24003KT M06/M08 A3031 RMK A01 T10571077  RH  086%=      5-min Rain = 0
KAM3 091128Z 24003KT M06/M08 A3031 RMK A01 T10571077  RH  086%=      5-min Rain = 0
KAM3 091129Z 24003KT M06/M08 A3031 RMK A01 T10571077  RH  086%=      5-min Rain = 0
KAM3 091130Z 25003KT M06/M08 A3031 RMK A01 T10571077  RH  086%=      5-min Rain = 0
KAM3 091131Z 25003KT M06/M08 A3031 RMK A01 T10561077  RH  085%=      5-min Rain = 0
KAM3 091132Z 25003KT M06/M08 A3031 RMK A01 T10561077  RH  085%=      5-min Rain = 0
KAM3 091133Z 25003KT M06/M08 A3031 RMK A01 T10561077  RH  085%=      5-min Rain = 0
KAM3 091134Z 25003KT M06/M08 A3031 RMK A01 T10551077  RH  085%=      5-min Rain = 0
KAM3 091135Z 25002KT M06/M08 A3031 RMK A01 T10551077  RH  085%=      5-min Rain = 0
KAM3 091136Z 25002KT M06/M08 A3031 RMK A01 T10551077  RH  085%=      5-min Rain = 0
KAM3 091137Z 24002KT M06/M08 A3031 RMK A01 T10551077  RH  084%=      5-min Rain = 0
KAM3 091138Z 24002KT M06/M08 A3031 RMK A01 T10551077  RH  084%=      5-min Rain = 0
KAM3 091139Z 24002KT M06/M08 A3031 RMK A01 T10551078  RH  084%=      5-min Rain = 0
KAM3 091140Z 24002KT M06/M08 A3031 RMK A01 T10551078  RH  084%=      5-min Rain = 0
KAM3 091141Z 24002KT M06/M08 A3031 RMK A01 T10551078  RH  084%=      5-min Rain = 0
KAM3 091142Z 24002KT M06/M08 A3031 RMK A01 T10551078  RH  084%=      5-min Rain = 0
KAM3 091143Z 24002KT M06/M08 A3031 RMK A01 T10551077  RH  084%=      5-min Rain = 0
KAM3 091144Z 24002KT M06/M08 A3031 RMK A01 T10551077  RH  084%=      5-min Rain = 0
KAM3 091145Z 24002KT M05/M08 A3031 RMK A01 T10541077  RH  084%=      5-min Rain = 0
KAM3 091146Z 24002KT M05/M08 A3031 RMK A01 T10541077  RH  084%=      5-min Rain = 0
KAM3 091147Z 24002KT M05/M08 A3032 RMK A01 T10541077  RH  084%=      5-min Rain = 0
KAM3 091148Z 24002KT M05/M08 A3032 RMK A01 T10541077  RH  084%=      5-min Rain = 0
KAM3 091149Z 24002KT M05/M08 A3032 RMK A01 T10541078  RH  083%=      5-min Rain = 0
KAM3 091150Z 25002KT M06/M08 A3032 RMK A01 T10551078  RH  083%=      5-min Rain = 0
KAM3 091151Z 25003KT M06/M08 A3032 RMK A01 T10551079  RH  084%=      5-min Rain = 0
KAM3 091152Z 26003KT M06/M08 A3032 RMK A01 T10551078  RH  084%=      5-min Rain = 0
KAM3 091153Z 26003KT M06/M08 A3032 RMK A01 T10551078  RH  084%=      5-min Rain = 0
KAM3 091154Z 26004KT M06/M08 A3032 RMK A01 T10551078  RH  084%=      5-min Rain = 0
KAM3 091155Z 27003KT M06/M08 A3032 RMK A01 T10551078  RH  084%=      5-min Rain = 0
KAM3 091156Z 27003KT M06/M08 A3032 RMK A01 T10551078  RH  084%=      5-min Rain = 0
KAM3 091157Z 27004KT M06/M08 A3032 RMK A01 T10551077  RH  084%=      5-min Rain = 0
KAM3 091158Z 27004KT M05/M08 A3032 RMK A01 T10541077  RH  084%=      5-min Rain = 0
KAM3 091159Z 27003KT M05/M08 A3032 RMK A01 T10541077  RH  084%=      5-min Rain = 0
KAM3 091200Z 26003KT M05/M08 A3032 RMK A01 T10541078  RH  083%=      5-min Rain = 0
KAM3 091201Z 27003KT M05/M08 A3032 RMK A01 T10541078  RH  083%=      5-min Rain = 0
KAM3 091202Z 27003KT M05/M08 A3032 RMK A01 T10541078  RH  083%=      5-min Rain = 0
KAM3 091203Z 27002KT M06/M08 A3032 RMK A01 T10551079  RH  083%=      5-min Rain = 0
KAM3 091204Z 27003KT M06/M08 A3032 RMK A01 T10551079  RH  083%=      5-min Rain = 0
KAM3 091205Z 26003KT M06/M08 A3032 RMK A01 T10561079  RH  084%=      5-min Rain = 0
KAM3 091206Z 27002KT M06/M08 A3032 RMK A01 T10561079  RH  084%=      5-min Rain = 0
KAM3 091207Z 27002KT M06/M08 A3032 RMK A01 T10571080  RH  084%=      5-min Rain = 0
KAM3 091208Z 27002KT M06/M08 A3032 RMK A01 T10571080  RH  084%=      5-min Rain = 0
KAM3 091209Z 27003KT M06/M08 A3032 RMK A01 T10571079  RH  084%=      5-min Rain = 0
KAM3 091210Z 27003KT M06/M08 A3032 RMK A01 T10571079  RH  085%=      5-min Rain = 0
KAM3 091211Z 27003KT M06/M08 A3032 RMK A01 T10571079  RH  085%=      5-min Rain = 0
KAM3 091212Z 27004KT M06/M08 A3032 RMK A01 T10571079  RH  084%=      5-min Rain = 0
KAM3 091213Z 26004KT M06/M08 A3032 RMK A01 T10581080  RH  084%=      5-min Rain = 0
KAM3 091214Z 26004KT M06/M08 A3032 RMK A01 T10591081  RH  084%=      5-min Rain = 0
KAM3 091215Z 26004KT M06/M08 A3032 RMK A01 T10601082  RH  085%=      5-min Rain = 0
KAM3 091216Z 26004KT M06/M08 A3032 RMK A01 T10611082  RH  085%=      5-min Rain = 0
KAM3 091217Z 26004KT M06/M08 A3032 RMK A01 T10621083  RH  085%=      5-min Rain = 0
KAM3 091218Z 26004KT M06/M08 A3032 RMK A01 T10641084  RH  085%=      5-min Rain = 0
KAM3 091219Z 26004KT M07/M09 A3032 RMK A01 T10651085  RH  086%=      5-min Rain = 0
KAM3 091220Z 26004KT M07/M09 A3032 RMK A01 T10661085  RH  086%=      5-min Rain = 0
KAM3 091221Z 26004KT M07/M09 A3032 RMK A01 T10671086  RH  087%=      5-min Rain = 0
KAM3 091222Z 26004KT M07/M09 A3032 RMK A01 T10671085  RH  087%=      5-min Rain = 0
KAM3 091223Z 25004KT M07/M09 A3032 RMK A01 T10681085  RH  088%=      5-min Rain = 0
KAM3 091224Z 25004KT M07/M09 A3032 RMK A01 T10681085  RH  088%=      5-min Rain = 0
KAM3 091225Z 25003KT M07/M08 A3032 RMK A01 T10681084  RH  089%=      5-min Rain = 0
KAM3 091226Z 25003KT M07/M08 A3032 RMK A01 T10681083  RH  089%=      5-min Rain = 0
KAM3 091227Z 25003KT M07/M08 A3032 RMK A01 T10681083  RH  089%=      5-min Rain = 0
KAM3 091228Z 25003KT M07/M08 A3033 RMK A01 T10671082  RH  089%=      5-min Rain = 0
KAM3 091229Z 25003KT M07/M08 A3033 RMK A01 T10671082  RH  089%=      5-min Rain = 0
KAM3 091230Z 25003KT M07/M08 A3033 RMK A01 T10671082  RH  089%=      5-min Rain = 0
KAM3 091231Z 25003KT M07/M08 A3033 RMK A01 T10661082  RH  089%=      5-min Rain = 0
KAM3 091232Z 26003KT M07/M08 A3033 RMK A01 T10661082  RH  089%=      5-min Rain = 0
KAM3 091233Z 26003KT M07/M08 A3033 RMK A01 T10661082  RH  089%=      5-min Rain = 0
KAM3 091234Z 26003KT M07/M08 A3033 RMK A01 T10651081  RH  089%=      5-min Rain = 0
KAM3 091235Z 26003KT M07/M08 A3033 RMK A01 T10651081  RH  089%=      5-min Rain = 0
KAM3 091236Z 26003KT M06/M08 A3033 RMK A01 T10641080  RH  088%=      5-min Rain = 0
KAM3 091237Z 26003KT M06/M08 A3033 RMK A01 T10631080  RH  088%=      5-min Rain = 0
KAM3 091238Z 27003KT M06/M08 A3033 RMK A01 T10621078  RH  088%=      5-min Rain = 0
KAM3 091239Z 27003KT M06/M08 A3033 RMK A01 T10611078  RH  088%=      5-min Rain = 0
KAM3 091240Z 27003KT M06/M08 A3033 RMK A01 T10601077  RH  088%=      5-min Rain = 0
KAM3 091241Z 27003KT M06/M08 A3033 RMK A01 T10591077  RH  087%=      5-min Rain = 0
KAM3 091242Z 27003KT M06/M08 A3033 RMK A01 T10591078  RH  087%=      5-min Rain = 0
KAM3 091243Z 27003KT M06/M08 A3033 RMK A01 T10591079  RH  086%=      5-min Rain = 0
KAM3 091244Z 27003KT M06/M08 A3033 RMK A01 T10591079  RH  086%=      5-min Rain = 0
KAM3 091245Z 27003KT M06/M08 A3033 RMK A01 T10601080  RH  086%=      5-min Rain = 0
KAM3 091246Z 27003KT M06/M08 A3033 RMK A01 T10601080  RH  086%=      5-min Rain = 0
KAM3 091247Z 27003KT M06/M08 A3033 RMK A01 T10601081  RH  086%=      5-min Rain = 0
KAM3 091248Z 27003KT M06/M08 A3033 RMK A01 T10601080  RH  086%=      5-min Rain = 0
KAM3 091249Z 27003KT M06/M08 A3033 RMK A01 T10601080  RH  086%=      5-min Rain = 0
KAM3 091250Z 27003KT M06/M08 A3033 RMK A01 T10601080  RH  086%=      5-min Rain = 0
KAM3 091251Z 27004KT M06/M08 A3033 RMK A01 T10601080  RH  086%=      5-min Rain = 0
KAM3 091252Z 27004KT M06/M08 A3034 RMK A01 T10601080  RH  086%=      5-min Rain = 0
KAM3 091253Z 27004KT M06/M08 A3034 RMK A01 T10601080  RH  086%=      5-min Rain = 0
KAM3 091254Z 27004KT M06/M08 A3034 RMK A01 T10601081  RH  086%=      5-min Rain = 0
KAM3 091255Z 27004KT M06/M08 A3034 RMK A01 T10611081  RH  086%=      5-min Rain = 0
KAM3 091256Z 27004KT M06/M08 A3034 RMK A01 T10611081  RH  086%=      5-min Rain = 0
KAM3 091257Z 27004KT M06/M08 A3034 RMK A01 T10611081  RH  086%=      5-min Rain = 0
KAM3 091258Z 27004KT M06/M08 A3034 RMK A01 T10611081  RH  086%=      5-min Rain = 0
KAM3 091259Z 27004KT M06/M08 A3034 RMK A01 T10611081  RH  086%=      5-min Rain = 0
KAM3 091300Z 27004KT M06/M08 A3034 RMK A01 T10621081  RH  086%=      5-min Rain = 0
KAM3 091301Z 27004KT M06/M08 A3034 RMK A01 T10631083  RH  086%=      5-min Rain = 0
KAM3 091302Z 27004KT M06/M08 A3034 RMK A01 T10641084  RH  086%=      5-min Rain = 0
KAM3 091303Z 27004KT M06/M08 A3034 RMK A01 T10641083  RH  086%=      5-min Rain = 0
KAM3 091304Z 26004KT M06/M08 A3034 RMK A01 T10641083  RH  087%=      5-min Rain = 0
KAM3 091305Z 26003KT M07/M08 A3034 RMK A01 T10651083  RH  087%=      5-min Rain = 0
KAM3 091306Z 26003KT M07/M08 A3034 RMK A01 T10651083  RH  087%=      5-min Rain = 0
KAM3 091307Z 26003KT M07/M08 A3034 RMK A01 T10651083  RH  087%=      5-min Rain = 0
KAM3 091308Z 26004KT M07/M08 A3034 RMK A01 T10651083  RH  087%=      5-min Rain = 0
KAM3 091309Z 26004KT M07/M08 A3034 RMK A01 T10651083  RH  088%=      5-min Rain = 0
KAM3 091310Z 26004KT M07/M08 A3034 RMK A01 T10651083  RH  088%=      5-min Rain = 0
KAM3 091311Z 26004KT M07/M08 A3034 RMK A01 T10651083  RH  088%=      5-min Rain = 0
KAM3 091312Z 26004KT M07/M08 A3034 RMK A01 T10651083  RH  088%=      5-min Rain = 0
KAM3 091313Z 26004KT M07/M08 A3034 RMK A01 T10651082  RH  088%=      5-min Rain = 0
KAM3 091314Z 26004KT M07/M08 A3034 RMK A01 T10651082  RH  088%=      5-min Rain = 0
KAM3 091315Z 26004KT M07/M08 A3034 RMK A01 T10651082  RH  088%=      5-min Rain = 0
KAM3 091316Z 26004KT M07/M08 A3034 RMK A01 T10651082  RH  088%=      5-min Rain = 0
KAM3 091317Z 26004KT M07/M08 A3034 RMK A01 T10651082  RH  088%=      5-min Rain = 0
KAM3 091318Z 26005KT M07/M08 A3034 RMK A01 T10661083  RH  088%=      5-min Rain = 0
KAM3 091319Z 26005KT M07/M08 A3034 RMK A01 T10661084  RH  088%=      5-min Rain = 0
KAM3 091320Z 26005KT M07/M09 A3034 RMK A01 T10671085  RH  088%=      5-min Rain = 0
KAM3 091321Z 26005KT M07/M09 A3034 RMK A01 T10681085  RH  088%=      5-min Rain = 0
KAM3 091322Z 26006KT M07/M09 A3034 RMK A01 T10691086  RH  088%=      5-min Rain = 0
KAM3 091323Z 26006KT M07/M09 A3034 RMK A01 T10691085  RH  089%=      5-min Rain = 0
KAM3 091324Z 26005KT M07/M09 A3034 RMK A01 T10691085  RH  089%=      5-min Rain = 0
KAM3 091325Z 26005KT M07/M09 A3034 RMK A01 T10701085  RH  089%=      5-min Rain = 0
KAM3 091326Z 26005KT M07/M09 A3034 RMK A01 T10701085  RH  089%=      5-min Rain = 0
KAM3 091327Z 26005KT M07/M09 A3034 RMK A01 T10711085  RH  089%=      5-min Rain = 0
KAM3 091328Z 26005KT M07/M09 A3034 RMK A01 T10711086  RH  089%=      5-min Rain = 0
KAM3 091329Z 26005KT M07/M09 A3034 RMK A01 T10721086  RH  090%=      5-min Rain = 0
KAM3 091330Z 26005KT M07/M09 A3035 RMK A01 T10721086  RH  090%=      5-min Rain = 0
KAM3 091331Z 26005KT M07/M09 A3035 RMK A01 T10731086  RH  090%=      5-min Rain = 0
KAM3 091332Z 26005KT M07/M09 A3035 RMK A01 T10731086  RH  090%=      5-min Rain = 0
KAM3 091333Z 26004KT M07/M09 A3035 RMK A01 T10731086  RH  091%=      5-min Rain = 0
KAM3 091334Z 26004KT M07/M09 A3035 RMK A01 T10741086  RH  091%=      5-min Rain = 0
KAM3 091335Z 26004KT M07/M09 A3035 RMK A01 T10731086  RH  091%=      5-min Rain = 0
KAM3 091336Z 26004KT M07/M09 A3035 RMK A01 T10731085  RH  091%=      5-min Rain = 0
KAM3 091337Z 26004KT M07/M09 A3035 RMK A01 T10731085  RH  091%=      5-min Rain = 0
KAM3 091338Z 25004KT M07/M09 A3035 RMK A01 T10731085  RH  091%=      5-min Rain = 0
KAM3 091339Z 25004KT M07/M09 A3035 RMK A01 T10731086  RH  091%=      5-min Rain = 0
KAM3 091340Z 24004KT M07/M09 A3035 RMK A01 T10731085  RH  091%=      5-min Rain = 0
KAM3 091341Z 24004KT M07/M09 A3035 RMK A01 T10741086  RH  091%=      5-min Rain = 0
KAM3 091342Z 24004KT M07/M09 A3035 RMK A01 T10741087  RH  091%=      5-min Rain = 0
KAM3 091343Z 24004KT M07/M09 A3035 RMK A01 T10741087  RH  091%=      5-min Rain = 0
KAM3 091344Z 25004KT M08/M09 A3035 RMK A01 T10751088  RH  091%=      5-min Rain = 0
KAM3 091345Z 25004KT M08/M09 A3035 RMK A01 T10751087  RH  091%=      5-min Rain = 0
KAM3 091346Z 25005KT M08/M09 A3035 RMK A01 T10751087  RH  091%=      5-min Rain = 0
KAM3 091347Z 25005KT M08/M09 A3035 RMK A01 T10751087  RH  092%=      5-min Rain = 0
KAM3 091348Z 25005KT M08/M09 A3035 RMK A01 T10751087  RH  092%=      5-min Rain = 0
KAM3 091349Z 25005KT M08/M09 A3035 RMK A01 T10761087  RH  092%=      5-min Rain = 0
KAM3 091350Z 26005KT M08/M09 A3035 RMK A01 T10761087  RH  092%=      5-min Rain = 0
KAM3 091351Z 26005KT M08/M09 A3035 RMK A01 T10761087  RH  092%=      5-min Rain = 0
KAM3 091352Z 26006KT M08/M09 A3035 RMK A01 T10761087  RH  092%=      5-min Rain = 0
KAM3 091353Z 25006KT M08/M09 A3035 RMK A01 T10761087  RH  092%=      5-min Rain = 0
KAM3 091354Z 25005KT M08/M09 A3035 RMK A01 T10761087  RH  092%=      5-min Rain = 0
KAM3 091355Z 25005KT M08/M09 A3035 RMK A01 T10761087  RH  092%=      5-min Rain = 0
KAM3 091356Z 25005KT M08/M09 A3035 RMK A01 T10761088  RH  092%=      5-min Rain = 0
KAM3 091357Z 25005KT M08/M09 A3035 RMK A01 T10761087  RH  092%=      5-min Rain = 0
KAM3 091358Z 25005KT M08/M09 A3035 RMK A01 T10761086  RH  093%=      5-min Rain = 0
KAM3 091359Z 25005KT M08/M08 A3035 RMK A01 T10751084  RH  093%=      5-min Rain = 0
KAM3 091400Z 25005KT M07/M08 A3035 RMK A01 T10741083  RH  093%=      5-min Rain = 0
KAM3 091401Z 25005KT M07/M08 A3035 RMK A01 T10731083  RH  093%=      5-min Rain = 0
KAM3 091402Z 25005KT M07/M08 A3035 RMK A01 T10721082  RH  093%=      5-min Rain = 0
KAM3 091403Z 25005KT M07/M08 A3035 RMK A01 T10721082  RH  093%=      5-min Rain = 0
KAM3 091404Z 25005KT M07/M08 A3035 RMK A01 T10711081  RH  092%=      5-min Rain = 0
KAM3 091405Z 25004KT M07/M08 A3035 RMK A01 T10711082  RH  092%=      5-min Rain = 0
KAM3 091406Z 25005KT M07/M08 A3035 RMK A01 T10711083  RH  091%=      5-min Rain = 0
KAM3 091407Z 25005KT M07/M08 A3035 RMK A01 T10701082  RH  091%=      5-min Rain = 0
KAM3 091408Z 24005KT M07/M08 A3035 RMK A01 T10691081  RH  091%=      5-min Rain = 0
KAM3 091409Z 24005KT M07/M08 A3035 RMK A01 T10691082  RH  091%=      5-min Rain = 0
KAM3 091410Z 25005KT M07/M08 A3035 RMK A01 T10691082  RH  090%=      5-min Rain = 0
KAM3 091411Z 24005KT M07/M08 A3035 RMK A01 T10691083  RH  090%=      5-min Rain = 0
KAM3 091412Z 25005KT M07/M08 A3035 RMK A01 T10691083  RH  089%=      5-min Rain = 0
KAM3 091413Z 24005KT M07/M08 A3035 RMK A01 T10681083  RH  089%=      5-min Rain = 0
KAM3 091414Z 24005KT M07/M08 A3035 RMK A01 T10681083  RH  089%=      5-min Rain = 0
KAM3 091415Z 24005KT M07/M08 A3035 RMK A01 T10681082  RH  089%=      5-min Rain = 0
KAM3 091416Z 25005KT M07/M08 A3035 RMK A01 T10671082  RH  090%=      5-min Rain = 0
KAM3 091417Z 25006KT M07/M08 A3035 RMK A01 T10671082  RH  089%=      5-min Rain = 0
KAM3 091418Z 25006KT M07/M08 A3035 RMK A01 T10671082  RH  090%=      5-min Rain = 0
KAM3 091419Z 25006KT M07/M08 A3035 RMK A01 T10661080  RH  090%=      5-min Rain = 0
KAM3 091420Z 25006KT M07/M08 A3035 RMK A01 T10651079  RH  090%=      5-min Rain = 0
KAM3 091421Z 25006KT M06/M08 A3035 RMK A01 T10641077  RH  090%=      5-min Rain = 0
KAM3 091422Z 25006KT M06/M08 A3035 RMK A01 T10631076  RH  090%=      5-min Rain = 0
KAM3 091423Z 25006KT M06/M08 A3036 RMK A01 T10621076  RH  090%=      5-min Rain = 0
KAM3 091424Z 25006KT M06/M08 A3036 RMK A01 T10611075  RH  090%=      5-min Rain = 0
KAM3 091425Z 25006KT M06/M07 A3036 RMK A01 T10601074  RH  090%=      5-min Rain = 0
KAM3 091426Z 26005KT M06/M07 A3036 RMK A01 T10591073  RH  090%=      5-min Rain = 0
KAM3 091427Z 26005KT M06/M07 A3036 RMK A01 T10581073  RH  090%=      5-min Rain = 0
KAM3 091428Z 26005KT M06/M07 A3036 RMK A01 T10581073  RH  089%=      5-min Rain = 0
KAM3 091429Z 26005KT M06/M07 A3036 RMK A01 T10571072  RH  089%=      5-min Rain = 0
KAM3 091430Z 25005KT M06/M07 A3036 RMK A01 T10571073  RH  089%=      5-min Rain = 0
KAM3 091431Z 25005KT M06/M07 A3036 RMK A01 T10561072  RH  089%=      5-min Rain = 0
KAM3 091432Z 26005KT M06/M07 A3036 RMK A01 T10561072  RH  089%=      5-min Rain = 0
KAM3 091433Z 26005KT M06/M07 A3036 RMK A01 T10551071  RH  088%=      5-min Rain = 0
KAM3 091434Z 26004KT M06/M07 A3036 RMK A01 T10551071  RH  088%=      5-min Rain = 0
KAM3 091435Z 26004KT M05/M07 A3036 RMK A01 T10541071  RH  088%=      5-min Rain = 0
KAM3 091436Z 26004KT M05/M07 A3036 RMK A01 T10541070  RH  088%=      5-min Rain = 0
KAM3 091437Z 26005KT M05/M07 A3036 RMK A01 T10531070  RH  088%=      5-min Rain = 0
KAM3 091438Z 26005KT M05/M07 A3036 RMK A01 T10531070  RH  088%=      5-min Rain = 0
KAM3 091439Z 26004KT M05/M07 A3036 RMK A01 T10521070  RH  088%=      5-min Rain = 0
KAM3 091440Z 25004KT M05/M07 A3036 RMK A01 T10521068  RH  088%=      5-min Rain = 0
KAM3 091441Z 26005KT M05/M07 A3036 RMK A01 T10511068  RH  088%=      5-min Rain = 0
KAM3 091442Z 26004KT M05/M07 A3036 RMK A01 T10511068  RH  088%=      5-min Rain = 0
KAM3 091443Z 26004KT M05/M07 A3036 RMK A01 T10501068  RH  088%=      5-min Rain = 0
KAM3 091444Z 26004KT M05/M07 A3036 RMK A01 T10511068  RH  087%=      5-min Rain = 0
KAM3 091445Z 26004KT M05/M07 A3036 RMK A01 T10501067  RH  087%=      5-min Rain = 0
KAM3 091446Z 27004KT M05/M06 A3036 RMK A01 T10481064  RH  088%=      5-min Rain = 0
KAM3 091447Z 27004KT M05/M06 A3036 RMK A01 T10471064  RH  088%=      5-min Rain = 0
KAM3 091448Z 26004KT M05/M07 A3036 RMK A01 T10471065  RH  088%=      5-min Rain = 0
KAM3 091449Z 27004KT M05/M06 A3036 RMK A01 T10461064  RH  087%=      5-min Rain = 0
KAM3 091450Z 26004KT M05/M06 A3036 RMK A01 T10461064  RH  087%=      5-min Rain = 0
KAM3 091451Z 27005KT M05/M06 A3036 RMK A01 T10451063  RH  087%=      5-min Rain = 0
KAM3 091452Z 27006KT M05/M06 A3036 RMK A01 T10451063  RH  087%=      5-min Rain = 0
KAM3 091453Z 27006KT M05/M06 A3036 RMK A01 T10451064  RH  087%=      5-min Rain = 0
KAM3 091454Z 26005KT M04/M06 A3036 RMK A01 T10441063  RH  087%=      5-min Rain = 0
KAM3 091455Z 26006KT M04/M06 A3036 RMK A01 T10431061  RH  087%=      5-min Rain = 0
KAM3 091456Z 26006KT M04/M06 A3036 RMK A01 T10421060  RH  087%=      5-min Rain = 0
KAM3 091457Z 26006KT M04/M06 A3036 RMK A01 T10421061  RH  087%=      5-min Rain = 0
KAM3 091458Z 26005KT M04/M06 A3036 RMK A01 T10411060  RH  087%=      5-min Rain = 0
KAM3 091459Z 26005KT M04/M06 A3036 RMK A01 T10401059  RH  087%=      5-min Rain = 0
KAM3 091500Z 26005KT M04/M06 A3036 RMK A01 T10391059  RH  086%=      5-min Rain = 0
KAM3 091501Z 25005KT M04/M06 A3036 RMK A01 T10381058  RH  086%=      5-min Rain = 0
KAM3 091502Z 25006KT M04/M06 A3036 RMK A01 T10371058  RH  085%=      5-min Rain = 0
KAM3 091503Z 26006KT M04/M06 A3036 RMK A01 T10371059  RH  085%=      5-min Rain = 0
KAM3 091504Z 26006KT M04/M06 A3036 RMK A01 T10361058  RH  085%=      5-min Rain = 0
KAM3 091505Z 26006KT M04/M06 A3036 RMK A01 T10351057  RH  085%=      5-min Rain = 0
KAM3 091506Z 26005KT M03/M06 A3036 RMK A01 T10341056  RH  085%=      5-min Rain = 0
KAM3 091507Z 26006KT M03/M06 A3036 RMK A01 T10331055  RH  085%=      5-min Rain = 0
KAM3 091508Z 26005KT M03/M06 A3036 RMK A01 T10321055  RH  085%=      5-min Rain = 0
KAM3 091509Z 25006KT M03/M05 A3036 RMK A01 T10311052  RH  085%=      5-min Rain = 0
KAM3 091510Z 25007KT M03/M05 A3036 RMK A01 T10301053  RH  084%=      5-min Rain = 0
KAM3 091511Z 26006KT M03/M06 A3036 RMK A01 T10311056  RH  083%=      5-min Rain = 0
KAM3 091512Z 26005KT M03/M06 A3036 RMK A01 T10311055  RH  083%=      5-min Rain = 0
KAM3 091513Z 26006KT M03/M05 A3036 RMK A01 T10301053  RH  084%=      5-min Rain = 0
KAM3 091514Z 26006KT M03/M05 A3036 RMK A01 T10291052  RH  084%=      5-min Rain = 0
KAM3 091515Z 27006KT M03/M05 A3037 RMK A01 T10271050  RH  085%=      5-min Rain = 0
KAM3 091516Z 26005KT M03/M05 A3037 RMK A01 T10261050  RH  084%=      5-min Rain = 0
KAM3 091517Z 27005KT M03/M05 A3037 RMK A01 T10251049  RH  084%=      5-min Rain = 0
KAM3 091518Z 27006KT M02/M05 A3037 RMK A01 T10241048  RH  084%=      5-min Rain = 0
KAM3 091519Z 27006KT M02/M05 A3037 RMK A01 T10241050  RH  082%=      5-min Rain = 0
KAM3 091520Z 26007KT M02/M05 A3037 RMK A01 T10241052  RH  081%=      5-min Rain = 0
KAM3 091521Z 26007KT M02/M05 A3037 RMK A01 T10241053  RH  081%=      5-min Rain = 0
KAM3 091522Z 28006KT M02/M05 A3037 RMK A01 T10231051  RH  081%=      5-min Rain = 0
KAM3 091523Z 27006KT M02/M05 A3037 RMK A01 T10231051  RH  081%=      5-min Rain = 0
KAM3 091524Z 28006KT M02/M05 A3037 RMK A01 T10221051  RH  081%=      5-min Rain = 0
KAM3 091525Z 28006KT M02/M05 A3037 RMK A01 T10221050  RH  081%=      5-min Rain = 0
KAM3 091526Z 28006KT M02/M05 A3037 RMK A01 T10211050  RH  081%=      5-min Rain = 0
KAM3 091527Z 28006KT M02/M05 A3037 RMK A01 T10211051  RH  080%=      5-min Rain = 0
KAM3 091528Z 28007KT M02/M05 A3037 RMK A01 T10211052  RH  079%=      5-min Rain = 0
KAM3 091529Z 28007KT M02/M05 A3037 RMK A01 T10211051  RH  080%=      5-min Rain = 0
KAM3 091530Z 27005KT M02/M05 A3037 RMK A01 T10201051  RH  079%=      5-min Rain = 0
KAM3 091531Z 27005KT M02/M05 A3037 RMK A01 T10201050  RH  079%=      5-min Rain = 0
KAM3 091532Z 27006KT M02/M05 A3037 RMK A01 T10181049  RH  079%=      5-min Rain = 0
KAM3 091533Z 26004KT M02/M05 A3037 RMK A01 T10181051  RH  078%=      5-min Rain = 0
KAM3 091534Z 26005KT M02/M05 A3037 RMK A01 T10181050  RH  078%=      5-min Rain = 0
KAM3 091535Z 28005KT M02/M05 A3037 RMK A01 T10171048  RH  079%=      5-min Rain = 0
KAM3 091536Z 27005KT M02/M05 A3037 RMK A01 T10151049  RH  078%=      5-min Rain = 0
KAM3 091537Z 27005KT M02/M05 A3037 RMK A01 T10151049  RH  078%=      5-min Rain = 0
KAM3 091538Z 27005KT M02/M05 A3037 RMK A01 T10151048  RH  078%=      5-min Rain = 0
KAM3 091539Z 28006KT M01/M05 A3038 RMK A01 T10141047  RH  078%=      5-min Rain = 0
KAM3 091540Z 29006KT M01/M05 A3038 RMK A01 T10131047  RH  078%=      5-min Rain = 0
KAM3 091541Z 28006KT M01/M05 A3038 RMK A01 T10131049  RH  077%=      5-min Rain = 0
KAM3 091542Z 28007KT M01/M05 A3038 RMK A01 T10131048  RH  077%=      5-min Rain = 0
KAM3 091543Z 28006KT M01/M05 A3038 RMK A01 T10131049  RH  076%=      5-min Rain = 0
KAM3 091544Z 27005KT M01/M05 A3038 RMK A01 T10131050  RH  076%=      5-min Rain = 0
KAM3 091545Z 27006KT M01/M05 A3038 RMK A01 T10131048  RH  077%=      5-min Rain = 0
KAM3 091546Z 27005KT M01/M05 A3038 RMK A01 T10121048  RH  076%=      5-min Rain = 0
KAM3 091547Z 29006KT M01/M05 A3038 RMK A01 T10121048  RH  076%=      5-min Rain = 0
KAM3 091548Z 28005KT M01/M05 A3038 RMK A01 T10111048  RH  076%=      5-min Rain = 0
KAM3 091549Z 28007KT M01/M05 A3038 RMK A01 T10111049  RH  075%=      5-min Rain = 0
KAM3 091550Z 28005KT M01/M05 A3038 RMK A01 T10101049  RH  075%=      5-min Rain = 0
KAM3 091551Z 29005KT M01/M05 A3038 RMK A01 T10091048  RH  075%=      5-min Rain = 0
KAM3 091552Z 27005KT M01/M05 A3038 RMK A01 T10071046  RH  075%=      5-min Rain = 0
KAM3 091553Z 28006KT M01/M05 A3038 RMK A01 T10061046  RH  074%=      5-min Rain = 0
KAM3 091554Z 27006KT M01/M05 A3038 RMK A01 T10061048  RH  073%=      5-min Rain = 0
KAM3 091555Z 27005KT M01/M05 A3038 RMK A01 T10061049  RH  073%=      5-min Rain = 0
KAM3 091556Z 28006KT M01/M05 A3038 RMK A01 T10051046  RH  074%=      5-min Rain = 0
KAM3 091557Z 28006KT M00/M05 A3038 RMK A01 T10031047  RH  072%=      5-min Rain = 0
KAM3 091558Z 28005KT M00/M05 A3038 RMK A01 T10041050  RH  071%=      5-min Rain = 0
KAM3 091559Z 28006KT M00/M05 A3038 RMK A01 T10031046  RH  073%=      5-min Rain = 0
KAM3 091600Z 28006KT M00/M05 A3038 RMK A01 T10021048  RH  071%=      5-min Rain = 0
KAM3 091601Z 28005KT M00/M05 A3038 RMK A01 T10021048  RH  071%=      5-min Rain = 0
KAM3 091602Z 28005KT M00/M05 A3038 RMK A01 T10011047  RH  071%=      5-min Rain = 0
KAM3 091603Z 29006KT M00/M05 A3038 RMK A01 T10011048  RH  071%=      5-min Rain = 0
KAM3 091604Z 29007KT M00/M05 A3038 RMK A01 T10011049  RH  070%=      5-min Rain = 0
KAM3 091605Z 29006KT M00/M05 A3039 RMK A01 T10021051  RH  070%=      5-min Rain = 0
KAM3 091606Z 29005KT M00/M05 A3039 RMK A01 T10031050  RH  070%=      5-min Rain = 0
KAM3 091607Z 30005KT M00/M05 A3039 RMK A01 T10021049  RH  071%=      5-min Rain = 0
KAM3 091608Z 30006KT M00/M05 A3039 RMK A01 T10021049  RH  071%=      5-min Rain = 0
KAM3 091609Z 30005KT M00/M05 A3039 RMK A01 T10021049  RH  071%=      5-min Rain = 0
KAM3 091610Z 29005KT M00/M05 A3039 RMK A01 T10021048  RH  071%=      5-min Rain = 0
KAM3 091611Z 30005KT M00/M05 A3039 RMK A01 T10011048  RH  071%=      5-min Rain = 0
KAM3 091612Z 30005KT 00/M05 A3039 RMK A01 T00011047  RH  070%=      5-min Rain = 0
KAM3 091613Z 29006KT 00/M05 A3039 RMK A01 T00021047  RH  070%=      5-min Rain = 0
KAM3 091614Z 28005KT 00/M05 A3039 RMK A01 T00021047  RH  069%=      5-min Rain = 0
KAM3 091615Z 29005KT 00/M05 A3039 RMK A01 T00031048  RH  069%=      5-min Rain = 0
KAM3 091616Z 30005KT 00/M05 A3039 RMK A01 T00031050  RH  068%=      5-min Rain = 0
KAM3 091617Z 29005KT 00/M05 A3039 RMK A01 T00021048  RH  069%=      5-min Rain = 0
KAM3 091618Z 29005KT 00/M05 A3039 RMK A01 T00041048  RH  068%=      5-min Rain = 0
KAM3 091619Z 28005KT 01/M05 A3039 RMK A01 T00051048  RH  068%=      5-min Rain = 0
KAM3 091620Z 29006KT 01/M05 A3039 RMK A01 T00051048  RH  067%=      5-min Rain = 0
KAM3 091621Z 28005KT 01/M05 A3039 RMK A01 T00071046  RH  067%=      5-min Rain = 0
KAM3 091622Z 29006KT 01/M05 A3039 RMK A01 T00081049  RH  066%=      5-min Rain = 0
KAM3 091623Z 29005KT 01/M05 A3039 RMK A01 T00061051  RH  065%=      5-min Rain = 0
KAM3 091624Z 29005KT 01/M05 A3039 RMK A01 T00061049  RH  067%=      5-min Rain = 0
KAM3 091625Z 29005KT 01/M05 A3039 RMK A01 T00071049  RH  066%=      5-min Rain = 0
KAM3 091626Z 31006KT 01/M05 A3039 RMK A01 T00071048  RH  066%=      5-min Rain = 0
KAM3 091627Z 31006KT 01/M05 A3039 RMK A01 T00081048  RH  066%=      5-min Rain = 0
KAM3 091628Z 32005KT 01/M05 A3039 RMK A01 T00071050  RH  066%=      5-min Rain = 0
KAM3 091629Z 30006KT 01/M05 A3039 RMK A01 T00071048  RH  067%=      5-min Rain = 0
KAM3 091630Z 29006KT 01/M05 A3039 RMK A01 T00081049  RH  066%=      5-min Rain = 0
KAM3 091631Z 28005KT 01/M05 A3039 RMK A01 T00081050  RH  065%=      5-min Rain = 0
KAM3 091632Z 28006KT 01/M05 A3039 RMK A01 T00091049  RH  066%=      5-min Rain = 0
KAM3 091633Z 29005KT 01/M05 A3039 RMK A01 T00091050  RH  065%=      5-min Rain = 0
KAM3 091634Z 30005KT 01/M05 A3039 RMK A01 T00071051  RH  065%=      5-min Rain = 0
KAM3 091635Z 30005KT 01/M05 A3039 RMK A01 T00081048  RH  066%=      5-min Rain = 0
KAM3 091636Z 29005KT 01/M05 A3039 RMK A01 T00091048  RH  066%=      5-min Rain = 0
KAM3 091637Z 28005KT 01/M05 A3039 RMK A01 T00091050  RH  065%=      5-min Rain = 0
KAM3 091638Z 29006KT 01/M05 A3039 RMK A01 T00081050  RH  065%=      5-min Rain = 0
KAM3 091639Z 29006KT 01/M05 A3039 RMK A01 T00101049  RH  065%=      5-min Rain = 0
KAM3 091640Z 30005KT 01/M05 A3039 RMK A01 T00111051  RH  064%=      5-min Rain = 0
KAM3 091641Z 30006KT 01/M05 A3038 RMK A01 T00101051  RH  064%=      5-min Rain = 0
KAM3 091642Z 30005KT 01/M05 A3038 RMK A01 T00111050  RH  064%=      5-min Rain = 0
KAM3 091643Z 30005KT 01/M05 A3038 RMK A01 T00121049  RH  064%=      5-min Rain = 0
KAM3 091644Z 28004KT 01/M05 A3038 RMK A01 T00121051  RH  063%=      5-min Rain = 0
KAM3 091645Z 29004KT 01/M05 A3038 RMK A01 T00121050  RH  063%=      5-min Rain = 0
KAM3 091646Z 29005KT 01/M05 A3038 RMK A01 T00131047  RH  064%=      5-min Rain = 0
KAM3 091647Z 28004KT 02/M05 A3038 RMK A01 T00151048  RH  063%=      5-min Rain = 0
KAM3 091648Z 29005KT 02/M05 A3038 RMK A01 T00161049  RH  062%=      5-min Rain = 0
KAM3 091649Z 29005KT 02/M05 A3038 RMK A01 T00151050  RH  062%=      5-min Rain = 0
KAM3 091650Z 30005KT 02/M05 A3038 RMK A01 T00151049  RH  063%=      5-min Rain = 0
KAM3 091651Z 30005KT 02/M05 A3038 RMK A01 T00161048  RH  062%=      5-min Rain = 0
KAM3 091652Z 29005KT 02/M05 A3038 RMK A01 T00171049  RH  062%=      5-min Rain = 0
KAM3 091653Z 31006KT 02/M05 A3038 RMK A01 T00191047  RH  062%=      5-min Rain = 0
KAM3 091654Z 31005KT 02/M05 A3038 RMK A01 T00201048  RH  061%=      5-min Rain = 0
KAM3 091655Z 29006KT 02/M05 A3038 RMK A01 T00211047  RH  060%=      5-min Rain = 0
KAM3 091656Z 30004KT 02/M05 A3038 RMK A01 T00211047  RH  061%=      5-min Rain = 0
KAM3 091657Z 31004KT 02/M05 A3038 RMK A01 T00211046  RH  061%=      5-min Rain = 0
KAM3 091658Z 29005KT 02/M05 A3038 RMK A01 T00231045  RH  061%=      5-min Rain = 0
KAM3 091659Z 28005KT 03/M05 A3038 RMK A01 T00251045  RH  060%=      5-min Rain = 0
KAM3 091700Z 28005KT 03/M05 A3038 RMK A01 T00251046  RH  060%=      5-min Rain = 0
KAM3 091701Z 30005KT 02/M05 A3038 RMK A01 T00241046  RH  060%=      5-min Rain = 0
KAM3 091702Z 27004KT 03/M05 A3038 RMK A01 T00251045  RH  060%=      5-min Rain = 0
KAM3 091703Z 28004KT 03/M05 A3038 RMK A01 T00251045  RH  060%=      5-min Rain = 0
KAM3 091704Z 30005KT 03/M04 A3038 RMK A01 T00271043  RH  060%=      5-min Rain = 0
KAM3 091705Z 28005KT 03/M04 A3038 RMK A01 T00281044  RH  059%=      5-min Rain = 0
KAM3 091706Z 27004KT 03/M05 A3038 RMK A01 T00261046  RH  059%=      5-min Rain = 0
KAM3 091707Z 27005KT 02/M05 A3038 RMK A01 T00241047  RH  059%=      5-min Rain = 0
KAM3 091708Z 27005KT 03/M05 A3038 RMK A01 T00251045  RH  060%=      5-min Rain = 0
KAM3 091709Z 29004KT 03/M05 A3038 RMK A01 T00251046  RH  060%=      5-min Rain = 0
KAM3 091710Z 30005KT 03/M04 A3038 RMK A01 T00271043  RH  060%=      5-min Rain = 0
KAM3 091711Z 29003KT 03/M04 A3038 RMK A01 T00281044  RH  059%=      5-min Rain = 0
KAM3 091712Z 28004KT 03/M04 A3038 RMK A01 T00281044  RH  059%=      5-min Rain = 0
KAM3 091713Z 29004KT 03/M04 A3038 RMK A01 T00291042  RH  059%=      5-min Rain = 0
KAM3 091714Z 30005KT 03/M04 A3038 RMK A01 T00311042  RH  059%=      5-min Rain = 0
KAM3 091715Z 29006KT 03/M04 A3038 RMK A01 T00311043  RH  058%=      5-min Rain = 0
KAM3 091716Z 28004KT 03/M04 A3038 RMK A01 T00311043  RH  058%=      5-min Rain = 0
KAM3 091717Z 27004KT 03/M04 A3038 RMK A01 T00321044  RH  058%=      5-min Rain = 0
KAM3 091718Z 28004KT 03/M04 A3038 RMK A01 T00331043  RH  058%=      5-min Rain = 0
KAM3 091719Z 29002KT 03/M04 A3038 RMK A01 T00331044  RH  057%=      5-min Rain = 0
KAM3 091720Z 30004KT 03/M04 A3038 RMK A01 T00331042  RH  058%=      5-min Rain = 0
KAM3 091721Z 29005KT 04/M04 A3038 RMK A01 T00361041  RH  057%=      5-min Rain = 0
KAM3 091722Z 27004KT 04/M04 A3037 RMK A01 T00361043  RH  056%=      5-min Rain = 0
KAM3 091723Z 28002KT 04/M04 A3037 RMK A01 T00351044  RH  056%=      5-min Rain = 0
KAM3 091724Z 31003KT 04/M04 A3037 RMK A01 T00351042  RH  057%=      5-min Rain = 0
KAM3 091725Z 29003KT 04/M04 A3037 RMK A01 T00361042  RH  057%=      5-min Rain = 0
KAM3 091726Z 31003KT 04/M04 A3037 RMK A01 T00371040  RH  057%=      5-min Rain = 0
KAM3 091727Z 31004KT 04/M04 A3037 RMK A01 T00411038  RH  056%=      5-min Rain = 0
KAM3 091728Z 31003KT 04/M04 A3037 RMK A01 T00411041  RH  055%=      5-min Rain = 0
KAM3 091729Z 27003KT 04/M04 A3037 RMK A01 T00411041  RH  055%=      5-min Rain = 0
KAM3 091730Z 27001KT 04/M04 A3037 RMK A01 T00411041  RH  055%=      5-min Rain = 0
KAM3 091731Z 27002KT 04/M04 A3037 RMK A01 T00411040  RH  056%=      5-min Rain = 0
KAM3 091732Z 28003KT 04/M04 A3037 RMK A01 T00431039  RH  055%=      5-min Rain = 0
KAM3 091733Z 29003KT 04/M04 A3037 RMK A01 T00441040  RH  055%=      5-min Rain = 0
KAM3 091734Z 29004KT 04/M04 A3037 RMK A01 T00441038  RH  055%=      5-min Rain = 0
KAM3 091735Z 30004KT 05/M04 A3037 RMK A01 T00451038  RH  055%=      5-min Rain = 0
KAM3 091736Z 29002KT 05/M04 A3038 RMK A01 T00461039  RH  054%=      5-min Rain = 0
KAM3 091737Z 27001KT 05/M04 A3038 RMK A01 T00461038  RH  054%=      5-min Rain = 0
KAM3 091738Z 29001KT 05/M04 A3037 RMK A01 T00461038  RH  054%=      5-min Rain = 0
KAM3 091739Z 27003KT 05/M04 A3037 RMK A01 T00461038  RH  055%=      5-min Rain = 0
KAM3 091740Z 28003KT 05/M04 A3037 RMK A01 T00471038  RH  054%=      5-min Rain = 0
KAM3 091741Z 33004KT 05/M04 A3037 RMK A01 T00471038  RH  054%=      5-min Rain = 0
KAM3 091742Z 33005KT 05/M04 A3037 RMK A01 T00491037  RH  054%=      5-min Rain = 0
KAM3 091743Z 33004KT 05/M04 A3037 RMK A01 T00491037  RH  054%=      5-min Rain = 0
KAM3 091744Z 36002KT 05/M04 A3037 RMK A01 T00501037  RH  054%=      5-min Rain = 0
KAM3 091745Z 00002KT 05/M04 A3037 RMK A01 T00501037  RH  053%=      5-min Rain = 0
KAM3 091746Z 36001KT 05/M04 A3037 RMK A01 T00501038  RH  053%=      5-min Rain = 0
KAM3 091747Z 29000KT 05/M04 A3037 RMK A01 T00501038  RH  053%=      5-min Rain = 0
KAM3 091748Z 31003KT 05/M04 A3037 RMK A01 T00521037  RH  053%=      5-min Rain = 0
KAM3 091749Z 35002KT 05/M04 A3037 RMK A01 T00531037  RH  052%=      5-min Rain = 0
KAM3 091750Z 29001KT 05/M04 A3037 RMK A01 T00531037  RH  052%=      5-min Rain = 0
KAM3 091751Z 29004KT 05/M04 A3037 RMK A01 T00531037  RH  052%=      5-min Rain = 0
KAM3 091752Z 31004KT 05/M04 A3037 RMK A01 T00541036  RH  052%=      5-min Rain = 0
KAM3 091753Z 01003KT 06/M03 A3037 RMK A01 T00561034  RH  052%=      5-min Rain = 0
KAM3 091754Z 34002KT 06/M03 A3037 RMK A01 T00581034  RH  051%=      5-min Rain = 0
KAM3 091755Z 30005KT 06/M04 A3037 RMK A01 T00591035  RH  051%=      5-min Rain = 0
KAM3 091756Z 29005KT 06/M04 A3037 RMK A01 T00591035  RH  051%=      5-min Rain = 0
KAM3 091757Z 29004KT 06/M04 A3037 RMK A01 T00571037  RH  051%=      5-min Rain = 0
KAM3 091758Z 29003KT 06/M04 A3037 RMK A01 T00571036  RH  051%=      5-min Rain = 0
KAM3 091759Z 27003KT 06/M04 A3037 RMK A01 T00551037  RH  051%=      5-min Rain = 0
KAM3 091800Z 28003KT 06/M04 A3037 RMK A01 T00551037  RH  052%=      5-min Rain = 0
KAM3 091801Z 27001KT 05/M04 A3037 RMK A01 T00541038  RH  052%=      5-min Rain = 0
KAM3 091802Z 13001KT 05/M04 A3037 RMK A01 T00541037  RH  052%=      5-min Rain = 0
KAM3 091803Z 18001KT 06/M04 A3037 RMK A01 T00551035  RH  052%=      5-min Rain = 0
KAM3 091804Z 27002KT 06/M03 A3036 RMK A01 T00581034  RH  052%=      5-min Rain = 0
KAM3 091805Z 29004KT 06/M03 A3036 RMK A01 T00591034  RH  051%=      5-min Rain = 0
KAM3 091806Z 28003KT 06/M04 A3036 RMK A01 T00601035  RH  050%=      5-min Rain = 0
KAM3 091807Z 25002KT 06/M04 A3036 RMK A01 T00581037  RH  050%=      5-min Rain = 0
KAM3 091808Z 25002KT 06/M04 A3036 RMK A01 T00571036  RH  051%=      5-min Rain = 0
KAM3 091809Z 27003KT 06/M04 A3036 RMK A01 T00571036  RH  051%=      5-min Rain = 0
KAM3 091810Z 28003KT 06/M04 A3036 RMK A01 T00571036  RH  051%=      5-min Rain = 0
KAM3 091811Z 29004KT 06/M03 A3036 RMK A01 T00591033  RH  051%=      5-min Rain = 0
KAM3 091812Z 27002KT 06/M03 A3036 RMK A01 T00621034  RH  050%=      5-min Rain = 0
KAM3 091813Z 24001KT 06/M04 A3036 RMK A01 T00621035  RH  050%=      5-min Rain = 0
KAM3 091814Z 22000KT 06/M04 A3036 RMK A01 T00621035  RH  050%=      5-min Rain = 0
KAM3 091815Z 33002KT 06/M03 A3036 RMK A01 T00641032  RH  050%=      5-min Rain = 0
KAM3 091816Z 28001KT 07/M03 A3036 RMK A01 T00661033  RH  049%=      5-min Rain = 0
KAM3 091817Z 22000KT 07/M04 A3036 RMK A01 T00661035  RH  048%=      5-min Rain = 0
KAM3 091818Z 27002KT 07/M03 A3036 RMK A01 T00671034  RH  049%=      5-min Rain = 0
KAM3 091819Z 22003KT 07/M03 A3036 RMK A01 T00681033  RH  048%=      5-min Rain = 0
KAM3 091820Z 25003KT 07/M03 A3035 RMK A01 T00691033  RH  048%=      5-min Rain = 0
KAM3 091821Z 33003KT 07/M03 A3035 RMK A01 T00701032  RH  048%=      5-min Rain = 0
KAM3 091822Z 35004KT 07/M03 A3035 RMK A01 T00711033  RH  048%=      5-min Rain = 0
KAM3 091823Z 36004KT 07/M04 A3035 RMK A01 T00711035  RH  047%=      5-min Rain = 0
KAM3 091824Z 02003KT 07/M04 A3035 RMK A01 T00681037  RH  047%=      5-min Rain = 0
KAM3 091825Z 02004KT 07/M04 A3035 RMK A01 T00671036  RH  048%=      5-min Rain = 0
KAM3 091826Z 02004KT 07/M04 A3035 RMK A01 T00671036  RH  048%=      5-min Rain = 0
KAM3 091827Z 03002KT 07/M04 A3035 RMK A01 T00681036  RH  048%=      5-min Rain = 0
KAM3 091828Z 08001KT 07/M04 A3035 RMK A01 T00671037  RH  047%=      5-min Rain = 0
KAM3 091829Z 10000KT 07/M03 A3035 RMK A01 T00701034  RH  047%=      5-min Rain = 0
KAM3 091830Z 12001KT 07/M04 A3035 RMK A01 T00721035  RH  046%=      5-min Rain = 0
KAM3 091831Z 04002KT 07/M04 A3035 RMK A01 T00721036  RH  046%=      5-min Rain = 0
KAM3 091832Z 06003KT 07/M03 A3034 RMK A01 T00731034  RH  046%=      5-min Rain = 0
KAM3 091833Z 05002KT 07/M04 A3034 RMK A01 T00741035  RH  046%=      5-min Rain = 0
KAM3 091834Z 08000KT 07/M03 A3034 RMK A01 T00731034  RH  046%=      5-min Rain = 0
KAM3 091835Z 28001KT 07/M03 A3034 RMK A01 T00741033  RH  046%=      5-min Rain = 0
KAM3 091836Z 30001KT 08/M04 A3034 RMK A01 T00751035  RH  046%=      5-min Rain = 0
KAM3 091837Z 30002KT 08/M04 A3034 RMK A01 T00751035  RH  046%=      5-min Rain = 0
KAM3 091838Z 29005KT 08/M04 A3034 RMK A01 T00751035  RH  046%=      5-min Rain = 0
KAM3 091839Z 33003KT 07/M04 A3034 RMK A01 T00741036  RH  045%=      5-min Rain = 0
KAM3 091840Z 31001KT 07/M04 A3034 RMK A01 T00721037  RH  046%=      5-min Rain = 0
KAM3 091841Z 04000KT 07/M04 A3034 RMK A01 T00711036  RH  046%=      5-min Rain = 0
KAM3 091842Z 02004KT 07/M04 A3034 RMK A01 T00731035  RH  046%=      5-min Rain = 0
KAM3 091843Z 01004KT 08/M04 A3034 RMK A01 T00761036  RH  045%=      5-min Rain = 0
KAM3 091844Z 02004KT 08/M04 A3034 RMK A01 T00771036  RH  044%=      5-min Rain = 0
KAM3 091845Z 00004KT 08/M04 A3034 RMK A01 T00781039  RH  043%=      5-min Rain = 0
KAM3 091846Z 01003KT 08/M04 A3034 RMK A01 T00781040  RH  043%=      5-min Rain = 0
KAM3 091847Z 36002KT 08/M04 A3034 RMK A01 T00781038  RH  044%=      5-min Rain = 0
KAM3 091848Z 02004KT 08/M04 A3034 RMK A01 T00781039  RH  043%=      5-min Rain = 0
KAM3 091849Z 01001KT 08/M04 A3034 RMK A01 T00771041  RH  043%=      5-min Rain = 0
KAM3 091850Z 03001KT 08/M04 A3034 RMK A01 T00771041  RH  043%=      5-min Rain = 0
KAM3 091851Z 04003KT 08/M04 A3034 RMK A01 T00781040  RH  043%=      5-min Rain = 0
KAM3 091852Z 03003KT 08/M04 A3034 RMK A01 T00791040  RH  043%=      5-min Rain = 0
KAM3 091853Z 03002KT 08/M04 A3034 RMK A01 T00791041  RH  042%=      5-min Rain = 0
KAM3 091854Z 08001KT 08/M04 A3034 RMK A01 T00801039  RH  043%=      5-min Rain = 0
KAM3 091855Z 05003KT 08/M04 A3034 RMK A01 T00821040  RH  042%=      5-min Rain = 0
KAM3 091856Z 05002KT 08/M04 A3034 RMK A01 T00821042  RH  041%=      5-min Rain = 0
KAM3 091857Z 03004KT 08/M04 A3034 RMK A01 T00841039  RH  042%=      5-min Rain = 0
KAM3 091858Z 03003KT 08/M04 A3034 RMK A01 T00841040  RH  041%=      5-min Rain = 0
KAM3 091859Z 04004KT 08/M04 A3033 RMK A01 T00811041  RH  042%=      5-min Rain = 0
KAM3 091900Z 04004KT 08/M04 A3033 RMK A01 T00811040  RH  042%=      5-min Rain = 0
KAM3 091901Z 02006KT 08/M04 A3033 RMK A01 T00811039  RH  042%=      5-min Rain = 0
KAM3 091902Z 02005KT 08/M04 A3033 RMK A01 T00811041  RH  042%=      5-min Rain = 0
KAM3 091903Z 03003KT 08/M04 A3033 RMK A01 T00791042  RH  042%=      5-min Rain = 0
KAM3 091904Z 05002KT 08/M04 A3033 RMK A01 T00791040  RH  043%=      5-min Rain = 0
KAM3 091905Z 05001KT 08/M04 A3033 RMK A01 T00791041  RH  042%=      5-min Rain = 0
KAM3 091906Z 02000KT 08/M04 A3033 RMK A01 T00801041  RH  042%=      5-min Rain = 0
KAM3 091907Z 04001KT 08/M04 A3033 RMK A01 T00831039  RH  042%=      5-min Rain = 0
KAM3 091908Z 12001KT 09/M04 A3033 RMK A01 T00851038  RH  041%=      5-min Rain = 0
KAM3 091909Z 01002KT 09/M04 A3033 RMK A01 T00861039  RH  041%=      5-min Rain = 0
KAM3 091910Z 05004KT 09/M04 A3033 RMK A01 T00881039  RH  041%=      5-min Rain = 0
KAM3 091911Z 04003KT 09/M04 A3033 RMK A01 T00881043  RH  039%=      5-min Rain = 0
KAM3 091912Z 02002KT 09/M04 A3033 RMK A01 T00881043  RH  039%=      5-min Rain = 0
KAM3 091913Z 01005KT 09/M04 A3033 RMK A01 T00891041  RH  040%=      5-min Rain = 0
KAM3 091914Z 04003KT 09/M04 A3033 RMK A01 T00901042  RH  039%=      5-min Rain = 0
KAM3 091915Z 02004KT 09/M05 A3033 RMK A01 T00881045  RH  039%=      5-min Rain = 0
KAM3 091916Z 36006KT 09/M05 A3033 RMK A01 T00871045  RH  039%=      5-min Rain = 0
KAM3 091917Z 36005KT 09/M05 A3033 RMK A01 T00881045  RH  039%=      5-min Rain = 0
KAM3 091918Z 36005KT 09/M05 A3033 RMK A01 T00911045  RH  038%=      5-min Rain = 0
KAM3 091919Z 00003KT 09/M05 A3033 RMK A01 T00901051  RH  036%=      5-min Rain = 0
KAM3 091920Z 35002KT 09/M05 A3033 RMK A01 T00881052  RH  037%=      5-min Rain = 0
KAM3 091921Z 31001KT 09/M05 A3033 RMK A01 T00881048  RH  038%=      5-min Rain = 0
KAM3 091922Z 04000KT 09/M05 A3033 RMK A01 T00921046  RH  037%=      5-min Rain = 0
KAM3 091923Z 03003KT 09/M05 A3033 RMK A01 T00931049  RH  036%=      5-min Rain = 0
KAM3 091924Z 02001KT 09/M05 A3033 RMK A01 T00921053  RH  035%=      5-min Rain = 0
KAM3 091925Z 04004KT 09/M05 A3033 RMK A01 T00911053  RH  036%=      5-min Rain = 0
KAM3 091926Z 03005KT 09/M06 A3033 RMK A01 T00931056  RH  035%=      5-min Rain = 0
KAM3 091927Z 02004KT 09/M06 A3033 RMK A01 T00931059  RH  034%=      5-min Rain = 0
KAM3 091928Z 03005KT 09/M05 A3033 RMK A01 T00941054  RH  035%=      5-min Rain = 0
KAM3 091929Z 03003KT 09/M05 A3033 RMK A01 T00941052  RH  035%=      5-min Rain = 0
KAM3 091930Z 04007KT 09/M05 A3033 RMK A01 T00941050  RH  036%=      5-min Rain = 0
KAM3 091931Z 04005KT 09/M05 A3033 RMK A01 T00941049  RH  036%=      5-min Rain = 0
KAM3 091932Z 06007KT 09/M05 A3032 RMK A01 T00941050  RH  036%=      5-min Rain = 0
KAM3 091933Z 06008KT 10/M05 A3032 RMK A01 T00951049  RH  036%=      5-min Rain = 0
KAM3 091934Z 06006KT 10/M05 A3033 RMK A01 T00951053  RH  035%=      5-min Rain = 0
KAM3 091935Z 07004KT 09/M06 A3032 RMK A01 T00931055  RH  035%=      5-min Rain = 0
KAM3 091936Z 05004KT 09/M05 A3032 RMK A01 T00921052  RH  036%=      5-min Rain = 0
KAM3 091937Z 02007KT 09/M05 A3032 RMK A01 T00941050  RH  036%=      5-min Rain = 0
KAM3 091938Z 03005KT 10/M05 A3032 RMK A01 T00951050  RH  035%=      5-min Rain = 0
KAM3 091939Z 02007KT 10/M05 A3032 RMK A01 T00951050  RH  036%=      5-min Rain = 0
KAM3 091940Z 02005KT 09/M05 A3032 RMK A01 T00941051  RH  035%=      5-min Rain = 0
KAM3 091941Z 03006KT 09/M05 A3032 RMK A01 T00931052  RH  036%=      5-min Rain = 0
KAM3 091942Z 02004KT 09/M05 A3032 RMK A01 T00941053  RH  035%=      5-min Rain = 0
KAM3 091943Z 00002KT 09/M06 A3032 RMK A01 T00931055  RH  035%=      5-min Rain = 0
KAM3 091944Z 36003KT 09/M06 A3032 RMK A01 T00921059  RH  034%=      5-min Rain = 0
KAM3 091945Z 06003KT 09/M06 A3032 RMK A01 T00921057  RH  034%=      5-min Rain = 0
KAM3 091946Z 05003KT 09/M06 A3032 RMK A01 T00931056  RH  035%=      5-min Rain = 0
KAM3 091947Z 09001KT 09/M05 A3032 RMK A01 T00941054  RH  035%=      5-min Rain = 0
KAM3 091948Z 00001KT 10/M05 A3032 RMK A01 T00971053  RH  034%=      5-min Rain = 0
KAM3 091949Z 03003KT 10/M06 A3032 RMK A01 T01001055  RH  033%=      5-min Rain = 0
KAM3 091950Z 01003KT 10/M06 A3032 RMK A01 T01001058  RH  032%=      5-min Rain = 0
KAM3 091951Z 04004KT 10/M06 A3032 RMK A01 T00991060  RH  032%=      5-min Rain = 0
KAM3 091952Z 07003KT 10/M06 A3032 RMK A01 T00971063  RH  032%=      5-min Rain = 0
KAM3 091953Z 05006KT 10/M06 A3032 RMK A01 T00991063  RH  031%=      5-min Rain = 0
KAM3 091954Z 01005KT 10/M06 A3032 RMK A01 T01001064  RH  031%=      5-min Rain = 0
KAM3 091955Z 01005KT 10/M06 A3032 RMK A01 T01001064  RH  031%=      5-min Rain = 0
KAM3 091956Z 36003KT 10/M06 A3032 RMK A01 T00981064  RH  031%=      5-min Rain = 0
KAM3 091957Z 00004KT 10/M07 A3032 RMK A01 T00971065  RH  031%=      5-min Rain = 0
KAM3 091958Z 33002KT 10/M07 A3032 RMK A01 T00961065  RH  032%=      5-min Rain = 0
KAM3 091959Z 02002KT 10/M06 A3032 RMK A01 T00971062  RH  032%=      5-min Rain = 0
KAM3 092000Z 01002KT 10/M06 A3032 RMK A01 T00991062  RH  032%=      5-min Rain = 0
KAM3 092001Z 01003KT 10/M06 A3032 RMK A01 T00991063  RH  031%=      5-min Rain = 0
KAM3 092002Z 05004KT 10/M06 A3031 RMK A01 T00991063  RH  031%=      5-min Rain = 0
KAM3 092003Z 04004KT 10/M06 A3032 RMK A01 T01021060  RH  031%=      5-min Rain = 0
KAM3 092004Z 05004KT 10/M06 A3032 RMK A01 T01041060  RH  031%=      5-min Rain = 0
KAM3 092005Z 00006KT 11/M06 A3031 RMK A01 T01061059  RH  031%=      5-min Rain = 0
KAM3 092006Z 32005KT 11/M06 A3031 RMK A01 T01081064  RH  029%=      5-min Rain = 0
KAM3 092007Z 35004KT 11/M07 A3031 RMK A01 T01061068  RH  029%=      5-min Rain = 0
KAM3 092008Z 01004KT 11/M07 A3031 RMK A01 T01051066  RH  029%=      5-min Rain = 0
KAM3 092009Z 00004KT 11/M06 A3031 RMK A01 T01071064  RH  029%=      5-min Rain = 0
KAM3 092010Z 01007KT 11/M06 A3031 RMK A01 T01101063  RH  029%=      5-min Rain = 0
KAM3 092011Z 02007KT 11/M07 A3031 RMK A01 T01101069  RH  028%=      5-min Rain = 0
KAM3 092012Z 02007KT 11/M07 A3031 RMK A01 T01081068  RH  028%=      5-min Rain = 0
KAM3 092013Z 02006KT 11/M07 A3031 RMK A01 T01071068  RH  029%=      5-min Rain = 0
KAM3 092014Z 36007KT 11/M07 A3031 RMK A01 T01051070  RH  029%=      5-min Rain = 0
KAM3 092015Z 35005KT 10/M07 A3031 RMK A01 T01021073  RH  028%=      5-min Rain = 0
KAM3 092016Z 00004KT 10/M07 A3031 RMK A01 T01001071  RH  029%=      5-min Rain = 0
KAM3 092017Z 01005KT 10/M07 A3031 RMK A01 T01001070  RH  030%=      5-min Rain = 0
KAM3 092018Z 00008KT 10/M07 A3031 RMK A01 T01001069  RH  030%=      5-min Rain = 0
KAM3 092019Z 01007KT 10/M07 A3031 RMK A01 T01011071  RH  029%=      5-min Rain = 0
KAM3 092020Z 00005KT 10/M07 A3031 RMK A01 T01011074  RH  029%=      5-min Rain = 0
KAM3 092021Z 35005KT 10/M07 A3031 RMK A01 T01001073  RH  029%=      5-min Rain = 0
KAM3 092022Z 00006KT 10/M07 A3031 RMK A01 T01011072  RH  029%=      5-min Rain = 0
KAM3 092023Z 04007KT 10/M07 A3031 RMK A01 T01011072  RH  029%=      5-min Rain = 0
KAM3 092024Z 03008KT 10/M07 A3031 RMK A01 T01011069  RH  030%=      5-min Rain = 0
KAM3 092025Z 02006KT 10/M07 A3031 RMK A01 T01031069  RH  029%=      5-min Rain = 0
KAM3 092026Z 05008KT 11/M07 A3031 RMK A01 T01051068  RH  029%=      5-min Rain = 0
KAM3 092027Z 04010KT 11/M07 A3031 RMK A01 T01061070  RH  028%=      5-min Rain = 0
KAM3 092028Z 02009KT 11/M07 A3031 RMK A01 T01061071  RH  028%=      5-min Rain = 0
KAM3 092029Z 02008KT 11/M07 A3031 RMK A01 T01061072  RH  028%=      5-min Rain = 0
KAM3 092030Z 01007KT 11/M07 A3031 RMK A01 T01051071  RH  028%=      5-min Rain = 0
KAM3 092031Z 01007KT 11/M07 A3031 RMK A01 T01051070  RH  029%=      5-min Rain = 0
KAM3 092032Z 35005KT 11/M07 A3031 RMK A01 T01051071  RH  028%=      5-min Rain = 0
KAM3 092033Z 35004KT 10/M07 A3031 RMK A01 T01041071  RH  029%=      5-min Rain = 0
KAM3 092034Z 34005KT 10/M07 A3031 RMK A01 T01031071  RH  029%=      5-min Rain = 0
KAM3 092035Z 35006KT 10/M07 A3031 RMK A01 T01031069  RH  029%=      5-min Rain = 0
KAM3 092036Z 02004KT 11/M07 A3031 RMK A01 T01051068  RH  029%=      5-min Rain = 0
KAM3 092037Z 01001KT 11/M07 A3031 RMK A01 T01061068  RH  029%=      5-min Rain = 0
KAM3 092038Z 34001G7KT 11/M07 A3031 RMK A01 T01061068  RH  029%=      5-min Rain = 0
KAM3 092039Z 36008KT 11/M07 A3031 RMK A01 T01081066  RH  029%=      5-min Rain = 0
KAM3 092040Z 01010KT 11/M07 A3031 RMK A01 T01091067  RH  028%=      5-min Rain = 0
KAM3 092041Z 02007KT 11/M07 A3031 RMK A01 T01081068  RH  028%=      5-min Rain = 0
KAM3 092042Z 02006KT 11/M07 A3031 RMK A01 T01051071  RH  028%=      5-min Rain = 0
KAM3 092043Z 35004KT 10/M07 A3031 RMK A01 T01031070  RH  029%=      5-min Rain = 0
KAM3 092044Z 33004KT 10/M07 A3031 RMK A01 T01041068  RH  029%=      5-min Rain = 0
KAM3 092045Z 32003KT 11/M07 A3031 RMK A01 T01061067  RH  029%=      5-min Rain = 0
KAM3 092046Z 34003KT 11/M07 A3031 RMK A01 T01071068  RH  029%=      5-min Rain = 0
KAM3 092047Z 03006KT 11/M07 A3031 RMK A01 T01071068  RH  029%=      5-min Rain = 0
KAM3 092048Z 03007KT 11/M07 A3032 RMK A01 T01071067  RH  029%=      5-min Rain = 0
KAM3 092049Z 03005KT 11/M07 A3032 RMK A01 T01071067  RH  029%=      5-min Rain = 0
KAM3 092050Z 01006KT 11/M06 A3032 RMK A01 T01091064  RH  029%=      5-min Rain = 0
KAM3 092051Z 01007KT 11/M07 A3031 RMK A01 T01101067  RH  028%=      5-min Rain = 0
KAM3 092052Z 03005KT 11/M07 A3031 RMK A01 T01081068  RH  028%=      5-min Rain = 0
KAM3 092053Z 04003KT 11/M07 A3031 RMK A01 T01081069  RH  028%=      5-min Rain = 0
KAM3 092054Z 10007KT 11/M07 A3031 RMK A01 T01081069  RH  028%=      5-min Rain = 0
KAM3 092055Z 34007KT 11/M07 A3031 RMK A01 T01091069  RH  028%=      5-min Rain = 0
KAM3 092056Z 36007KT 11/M07 A3031 RMK A01 T01101068  RH  028%=      5-min Rain = 0
KAM3 092057Z 00007KT 11/M07 A3031 RMK A01 T01091069  RH  028%=      5-min Rain = 0
KAM3 092058Z 01007KT 11/M07 A3031 RMK A01 T01071069  RH  028%=      5-min Rain = 0
KAM3 092059Z 03008KT 11/M07 A3031 RMK A01 T01061070  RH  028%=      5-min Rain = 0
KAM3 092100Z 03007KT 11/M07 A3031 RMK A01 T01061071  RH  028%=      5-min Rain = 0
KAM3 092101Z 03004KT 11/M07 A3031 RMK A01 T01051072  RH  028%=      5-min Rain = 0
KAM3 092102Z 01003KT 11/M07 A3031 RMK A01 T01051071  RH  028%=      5-min Rain = 0
KAM3 092103Z 03003KT 11/M07 A3031 RMK A01 T01061070  RH  028%=      5-min Rain = 0
KAM3 092104Z 05005KT 11/M07 A3031 RMK A01 T01071070  RH  028%=      5-min Rain = 0
KAM3 092105Z 05005KT 11/M07 A3031 RMK A01 T01091070  RH  028%=      5-min Rain = 0
KAM3 092106Z 03006KT 11/M07 A3031 RMK A01 T01091071  RH  028%=      5-min Rain = 0
KAM3 092107Z 03010KT 11/M07 A3031 RMK A01 T01091074  RH  027%=      5-min Rain = 0
KAM3 092108Z 04009KT 11/M07 A3031 RMK A01 T01101074  RH  027%=      5-min Rain = 0
KAM3 092109Z 05008KT 11/M08 A3031 RMK A01 T01091075  RH  027%=      5-min Rain = 0
KAM3 092110Z 05009KT 11/M07 A3031 RMK A01 T01101074  RH  027%=      5-min Rain = 0
KAM3 092111Z 04008KT 11/M07 A3031 RMK A01 T01111073  RH  027%=      5-min Rain = 0
KAM3 092112Z 03008KT 11/M08 A3031 RMK A01 T01091076  RH  026%=      5-min Rain = 0
KAM3 092113Z 04009KT 11/M08 A3031 RMK A01 T01081075  RH  027%=      5-min Rain = 0
KAM3 092114Z 04006KT 11/M08 A3031 RMK A01 T01071075  RH  027%=      5-min Rain = 0
KAM3 092115Z 06005KT 11/M08 A3031 RMK A01 T01061076  RH  027%=      5-min Rain = 0
KAM3 092116Z 07002KT 11/M08 A3031 RMK A01 T01061077  RH  027%=      5-min Rain = 0
KAM3 092117Z 05004KT 11/M08 A3031 RMK A01 T01061076  RH  027%=      5-min Rain = 0
KAM3 092118Z 06008KT 11/M07 A3031 RMK A01 T01081074  RH  027%=      5-min Rain = 0
KAM3 092119Z 06007KT 11/M07 A303 RMK A01 T01091074  RH  027%=      5-min Rain = 0
KAM3 092120Z 04005KT 11/M08 A303 RMK A01 T01091076  RH  027%=      5-min Rain = 0
KAM3 092121Z 04005KT 11/M08 A303 RMK A01 T01081076  RH  027%=      5-min Rain = 0
KAM3 092122Z 04005KT 11/M08 A303 RMK A01 T01081075  RH  027%=      5-min Rain = 0
KAM3 092123Z 02008KT 11/M07 A303 RMK A01 T01081074  RH  027%=      5-min Rain = 0
KAM3 092124Z 03006KT 11/M08 A303 RMK A01 T01081075  RH  027%=      5-min Rain = 0
KAM3 092125Z 01008KT 11/M07 A303 RMK A01 T01091073  RH  027%=      5-min Rain = 0
KAM3 092126Z 02008KT 11/M07 A303 RMK A01 T01101070  RH  028%=      5-min Rain = 0
KAM3 092127Z 04007KT 11/M07 A303 RMK A01 T01101070  RH  028%=      5-min Rain = 0
KAM3 092128Z 06005KT 11/M07 A303 RMK A01 T01101069  RH  028%=      5-min Rain = 0
KAM3 092129Z 05004KT 11/M07 A303 RMK A01 T01091070  RH  028%=      5-min Rain = 0
KAM3 092130Z 01003KT 11/M07 A303 RMK A01 T01091069  RH  028%=      5-min Rain = 0
KAM3 092131Z 02003KT 11/M07 A303 RMK A01 T01101071  RH  027%=      5-min Rain = 0
KAM3 092132Z 00006KT 11/M07 A303 RMK A01 T01121071  RH  027%=      5-min Rain = 0
KAM3 092133Z 00006KT 11/M07 A303 RMK A01 T01141070  RH  027%=      5-min Rain = 0
KAM3 092134Z 01004KT 11/M07 A303 RMK A01 T01141068  RH  027%=      5-min Rain = 0
KAM3 092135Z 03004KT 12/M07 A303 RMK A01 T01151072  RH  026%=      5-min Rain = 0
KAM3 092136Z 04004KT 11/M07 A303 RMK A01 T01121072  RH  027%=      5-min Rain = 0
KAM3 092137Z 06003KT 11/M07 A303 RMK A01 T01121066  RH  028%=      5-min Rain = 0
KAM3 092138Z 06006KT 11/M06 A303 RMK A01 T01131063  RH  029%=      5-min Rain = 0
KAM3 092139Z 04006KT 11/M06 A303 RMK A01 T01141063  RH  028%=      5-min Rain = 0
KAM3 092140Z 06005KT 11/M07 A303 RMK A01 T01131065  RH  028%=      5-min Rain = 0
KAM3 092141Z 08005KT 11/M06 A303 RMK A01 T01121063  RH  029%=      5-min Rain = 0
KAM3 092142Z 09006KT 11/M06 A303 RMK A01 T01131063  RH  028%=      5-min Rain = 0
KAM3 092143Z 09005KT 11/M06 A303 RMK A01 T01141064  RH  028%=      5-min Rain = 0
KAM3 092144Z 07006KT 11/M07 A303 RMK A01 T01131065  RH  028%=      5-min Rain = 0
KAM3 092145Z 05007KT 11/M07 A3031 RMK A01 T01131065  RH  028%=      5-min Rain = 0
KAM3 092146Z 06006KT 11/M07 A3031 RMK A01 T01111067  RH  028%=      5-min Rain = 0
KAM3 092147Z 06006KT 11/M07 A3031 RMK A01 T01091069  RH  028%=      5-min Rain = 0
KAM3 092148Z 06005KT 11/M07 A303 RMK A01 T01071071  RH  028%=      5-min Rain = 0
KAM3 092149Z 07004KT 11/M07 A303 RMK A01 T01071071  RH  028%=      5-min Rain = 0
KAM3 092150Z 10004KT 11/M07 A303 RMK A01 T01061073  RH  028%=      5-min Rain = 0
KAM3 092151Z 12004KT 11/M07 A303 RMK A01 T01051072  RH  028%=      5-min Rain = 0
KAM3 092152Z 11002KT 11/M07 A303 RMK A01 T01051073  RH  028%=      5-min Rain = 0
KAM3 092153Z 10001KT 11/M07 A303 RMK A01 T01051073  RH  028%=      5-min Rain = 0
KAM3 092154Z 08003KT 11/M07 A303 RMK A01 T01051072  RH  028%=      5-min Rain = 0
KAM3 092155Z 03003KT 11/M07 A303 RMK A01 T01061071  RH  028%=      5-min Rain = 0
KAM3 092156Z 02004KT 11/M07 A303 RMK A01 T01071072  RH  028%=      5-min Rain = 0
KAM3 092157Z 01003KT 11/M07 A303 RMK A01 T01071073  RH  028%=      5-min Rain = 0
KAM3 092158Z 02001KT 11/M07 A303 RMK A01 T01061074  RH  028%=      5-min Rain = 0
KAM3 092159Z 02001KT 11/M07 A303 RMK A01 T01061074  RH  028%=      5-min Rain = 0
KAM3 092200Z 02004KT 11/M07 A303 RMK A01 T01071072  RH  028%=      5-min Rain = 0
KAM3 092201Z 01006KT 11/M07 A303 RMK A01 T01101072  RH  027%=      5-min Rain = 0
KAM3 092202Z 35006KT 11/M07 A303 RMK A01 T01101073  RH  027%=      5-min Rain = 0
KAM3 092203Z 01004KT 11/M08 A3031 RMK A01 T01091075  RH  027%=      5-min Rain = 0
KAM3 092204Z 36005KT 11/M08 A3031 RMK A01 T01071075  RH  027%=      5-min Rain = 0
KAM3 092205Z 35005KT 11/M08 A3031 RMK A01 T01071075  RH  027%=      5-min Rain = 0
KAM3 092206Z 01005KT 11/M08 A3031 RMK A01 T01071075  RH  027%=      5-min Rain = 0
KAM3 092207Z 03004KT 11/M08 A3031 RMK A01 T01071075  RH  027%=      5-min Rain = 0
KAM3 092208Z 06003KT 11/M07 A3031 RMK A01 T01081073  RH  027%=      5-min Rain = 0
KAM3 092209Z 07006KT 11/M07 A3031 RMK A01 T01091072  RH  027%=      5-min Rain = 0
KAM3 092210Z 05005KT 11/M07 A3031 RMK A01 T01091072  RH  027%=      5-min Rain = 0
KAM3 092211Z 06005KT 11/M07 A3031 RMK A01 T01091073  RH  027%=      5-min Rain = 0
KAM3 092212Z 07006KT 11/M07 A3031 RMK A01 T01091073  RH  027%=      5-min Rain = 0
KAM3 092213Z 07004KT 11/M07 A3031 RMK A01 T01091073  RH  027%=      5-min Rain = 0
KAM3 092214Z 07004KT 11/M07 A3031 RMK A01 T01081074  RH  027%=      5-min Rain = 0
KAM3 092215Z 07003KT 11/M08 A3031 RMK A01 T01071075  RH  027%=      5-min Rain = 0
KAM3 092216Z 07003KT 11/M07 A3031 RMK A01 T01071073  RH  027%=      5-min Rain = 0
KAM3 092217Z 06002KT 11/M07 A3031 RMK A01 T01071074  RH  027%=      5-min Rain = 0
KAM3 092218Z 04003KT 11/M07 A3031 RMK A01 T01081073  RH  027%=      5-min Rain = 0
KAM3 092219Z 04006KT 11/M07 A3031 RMK A01 T01091073  RH  027%=      5-min Rain = 0
KAM3 092220Z 05008KT 11/M07 A3031 RMK A01 T01091074  RH  027%=      5-min Rain = 0
KAM3 092221Z 04008KT 11/M07 A3031 RMK A01 T01081074  RH  027%=      5-min Rain = 0
KAM3 092222Z 04007KT 11/M08 A3031 RMK A01 T01071075  RH  027%=      5-min Rain = 0
KAM3 092223Z 05007KT 11/M08 A3031 RMK A01 T01061075  RH  027%=      5-min Rain = 0
KAM3 092224Z 04006KT 11/M08 A3031 RMK A01 T01061076  RH  027%=      5-min Rain = 0
KAM3 092225Z 06004KT 11/M08 A3031 RMK A01 T01051076  RH  027%=      5-min Rain = 0
KAM3 092226Z 06006KT 11/M07 A3031 RMK A01 T01061074  RH  028%=      5-min Rain = 0
KAM3 092227Z 04008KT 11/M08 A3031 RMK A01 T01071075  RH  027%=      5-min Rain = 0
KAM3 092228Z 04007KT 11/M08 A3031 RMK A01 T01061077  RH  027%=      5-min Rain = 0
KAM3 092229Z 04007KT 11/M08 A3031 RMK A01 T01061077  RH  027%=      5-min Rain = 0
KAM3 092230Z 04006KT 11/M08 A3031 RMK A01 T01051077  RH  027%=      5-min Rain = 0
KAM3 092231Z 05006KT 11/M08 A3031 RMK A01 T01051077  RH  027%=      5-min Rain = 0
KAM3 092232Z 05007KT 10/M08 A3031 RMK A01 T01041078  RH  027%=      5-min Rain = 0
KAM3 092233Z 04008KT 10/M08 A3031 RMK A01 T01041077  RH  027%=      5-min Rain = 0
KAM3 092234Z 04008KT 10/M08 A3031 RMK A01 T01041077  RH  027%=      5-min Rain = 0
KAM3 092235Z 04008KT 10/M08 A3031 RMK A01 T01041076  RH  027%=      5-min Rain = 0
KAM3 092236Z 04007KT 10/M08 A3031 RMK A01 T01031076  RH  028%=      5-min Rain = 0
KAM3 092237Z 04007KT 10/M08 A3031 RMK A01 T01031075  RH  028%=      5-min Rain = 0
KAM3 092238Z 03008KT 10/M08 A3031 RMK A01 T01031077  RH  027%=      5-min Rain = 0
KAM3 092239Z 04008KT 10/M08 A3031 RMK A01 T01021079  RH  027%=      5-min Rain = 0
KAM3 092240Z 04007KT 10/M08 A3031 RMK A01 T01021079  RH  027%=      5-min Rain = 0
KAM3 092241Z 04008KT 10/M08 A3031 RMK A01 T01011079  RH  027%=      5-min Rain = 0
KAM3 092242Z 04005KT 10/M08 A3031 RMK A01 T01011078  RH  027%=      5-min Rain = 0
KAM3 092243Z 05005KT 10/M08 A3031 RMK A01 T01011078  RH  028%=      5-min Rain = 0
KAM3 092244Z 05005KT 10/M08 A3031 RMK A01 T01011078  RH  028%=      5-min Rain = 0
KAM3 092245Z 04006KT 10/M08 A3031 RMK A01 T01011078  RH  028%=      5-min Rain = 0
KAM3 092246Z 04007KT 10/M08 A3031 RMK A01 T01011078  RH  028%=      5-min Rain = 0
KAM3 092247Z 04007KT 10/M08 A3032 RMK A01 T01001078  RH  028%=      5-min Rain = 0
KAM3 092248Z 04007KT 10/M08 A3032 RMK A01 T01001078  RH  028%=      5-min Rain = 0
KAM3 092249Z 04007KT 10/M08 A3032 RMK A01 T00991078  RH  028%=      5-min Rain = 0
KAM3 092250Z 04007KT 10/M08 A3032 RMK A01 T00991079  RH  028%=      5-min Rain = 0
KAM3 092251Z 04008KT 10/M08 A3032 RMK A01 T00981079  RH  028%=      5-min Rain = 0
KAM3 092252Z 04007KT 10/M08 A3032 RMK A01 T00981079  RH  028%=      5-min Rain = 0
KAM3 092253Z 04006KT 10/M08 A3032 RMK A01 T00981080  RH  028%=      5-min Rain = 0
KAM3 092254Z 04007KT 10/M08 A3032 RMK A01 T00971080  RH  028%=      5-min Rain = 0
KAM3 092255Z 03006KT 10/M08 A3032 RMK A01 T00971080  RH  028%=      5-min Rain = 0
KAM3 092256Z 03006KT 10/M08 A3032 RMK A01 T00961080  RH  028%=      5-min Rain = 0
KAM3 092257Z 03006KT 10/M08 A3032 RMK A01 T00961080  RH  028%=      5-min Rain = 0
KAM3 092258Z 04005KT 10/M08 A3032 RMK A01 T00951080  RH  028%=      5-min Rain = 0
KAM3 092259Z 03006KT 10/M08 A3032 RMK A01 T00951081  RH  028%=      5-min Rain = 0
KAM3 092300Z 04006KT 09/M08 A3032 RMK A01 T00941081  RH  028%=      5-min Rain = 0
KAM3 092301Z 04006KT 09/M08 A3032 RMK A01 T00941081  RH  028%=      5-min Rain = 0
KAM3 092302Z 04007KT 09/M08 A3032 RMK A01 T00931081  RH  028%=      5-min Rain = 0
KAM3 092303Z 04007KT 09/M08 A3032 RMK A01 T00931081  RH  029%=      5-min Rain = 0
KAM3 092304Z 05007KT 09/M08 A3032 RMK A01 T00921079  RH  029%=      5-min Rain = 0
KAM3 092305Z 05007KT 09/M08 A3032 RMK A01 T00901077  RH  030%=      5-min Rain = 0
KAM3 092306Z 06006KT 09/M08 A3032 RMK A01 T00891076  RH  030%=      5-min Rain = 0
KAM3 092307Z 06007KT 09/M08 A3032 RMK A01 T00881075  RH  031%=      5-min Rain = 0
KAM3 092308Z 06007KT 09/M08 A3032 RMK A01 T00871075  RH  031%=      5-min Rain = 0
KAM3 092309Z 07007KT 09/M08 A3032 RMK A01 T00861075  RH  031%=      5-min Rain = 0
KAM3 092310Z 07007KT 09/M08 A3032 RMK A01 T00851075  RH  031%=      5-min Rain = 0
KAM3 092311Z 07007KT 08/M07 A3032 RMK A01 T00841074  RH  032%=      5-min Rain = 0
KAM3 092312Z 06007KT 08/M07 A3032 RMK A01 T00831074  RH  032%=      5-min Rain = 0
KAM3 092313Z 06007KT 08/M07 A3032 RMK A01 T00821074  RH  032%=      5-min Rain = 0
KAM3 092314Z 07007KT 08/M07 A3032 RMK A01 T00811073  RH  033%=      5-min Rain = 0
KAM3 092315Z 06006KT 08/M07 A3032 RMK A01 T00801074  RH  033%=      5-min Rain = 0
KAM3 092316Z 06006KT 08/M07 A3032 RMK A01 T00791074  RH  033%=      5-min Rain = 0
KAM3 092317Z 07007KT 08/M07 A3032 RMK A01 T00781074  RH  033%=      5-min Rain = 0
KAM3 092318Z 06006KT 08/M08 A3032 RMK A01 T00771075  RH  033%=      5-min Rain = 0
KAM3 092319Z 06007KT 08/M08 A3032 RMK A01 T00761075  RH  033%=      5-min Rain = 0
KAM3 092320Z 06007KT 08/M08 A3032 RMK A01 T00751075  RH  033%=      5-min Rain = 0
KAM3 092321Z 06007KT 07/M08 A3032 RMK A01 T00741076  RH  034%=      5-min Rain = 0
KAM3 092322Z 06007KT 07/M08 A3032 RMK A01 T00731076  RH  034%=      5-min Rain = 0
KAM3 092323Z 06007KT 07/M08 A3032 RMK A01 T00721076  RH  034%=      5-min Rain = 0
KAM3 092324Z 06006KT 07/M08 A3032 RMK A01 T00721076  RH  034%=      5-min Rain = 0
KAM3 092325Z 06006KT 07/M08 A3032 RMK A01 T00701077  RH  034%=      5-min Rain = 0
KAM3 092326Z 06006KT 07/M08 A3032 RMK A01 T00701076  RH  034%=      5-min Rain = 0
KAM3 092327Z 05006KT 07/M08 A3032 RMK A01 T00701077  RH  034%=      5-min Rain = 0
KAM3 092328Z 05007KT 07/M08 A3032 RMK A01 T00691077  RH  034%=      5-min Rain = 0
KAM3 092329Z 05007KT 07/M08 A3032 RMK A01 T00691077  RH  035%=      5-min Rain = 0
KAM3 092330Z 05007KT 07/M08 A3032 RMK A01 T00681077  RH  035%=      5-min Rain = 0
KAM3 092331Z 05007KT 07/M08 A3033 RMK A01 T00681078  RH  035%=      5-min Rain = 0
KAM3 092332Z 05007KT 07/M08 A3033 RMK A01 T00671078  RH  035%=      5-min Rain = 0
KAM3 092333Z 05007KT 07/M08 A3033 RMK A01 T00661078  RH  035%=      5-min Rain = 0
KAM3 092334Z 05007KT 07/M08 A3033 RMK A01 T00661079  RH  035%=      5-min Rain = 0
KAM3 092335Z 05007KT 07/M08 A3033 RMK A01 T00661079  RH  035%=      5-min Rain = 0
KAM3 092336Z 05007KT 07/M08 A3033 RMK A01 T00651079  RH  035%=      5-min Rain = 0
KAM3 092337Z 05007KT 07/M08 A3033 RMK A01 T00651079  RH  035%=      5-min Rain = 0
KAM3 092338Z 05007KT 07/M08 A3033 RMK A01 T00651079  RH  035%=      5-min Rain = 0
KAM3 092339Z 05008KT 06/M08 A3033 RMK A01 T00641079  RH  035%=      5-min Rain = 0
KAM3 092340Z 05008KT 06/M08 A3033 RMK A01 T00641080  RH  035%=      5-min Rain = 0
KAM3 092341Z 05008KT 06/M08 A3033 RMK A01 T00631080  RH  035%=      5-min Rain = 0
KAM3 092342Z 05008KT 06/M08 A3033 RMK A01 T00621080  RH  035%=      5-min Rain = 0
KAM3 092343Z 05008KT 06/M08 A3033 RMK A01 T00611080  RH  036%=      5-min Rain = 0
KAM3 092344Z 04008KT 06/M08 A3033 RMK A01 T00611080  RH  036%=      5-min Rain = 0
KAM3 092345Z 04008KT 06/M08 A3033 RMK A01 T00601080  RH  036%=      5-min Rain = 0
KAM3 092346Z 04009KT 06/M08 A3033 RMK A01 T00591080  RH  036%=      5-min Rain = 0
KAM3 092347Z 04009KT 06/M08 A3033 RMK A01 T00591080  RH  036%=      5-min Rain = 0
KAM3 092348Z 04009KT 06/M08 A3033 RMK A01 T00591079  RH  036%=      5-min Rain = 0
KAM3 092349Z 04008KT 06/M08 A3033 RMK A01 T00581079  RH  037%=      5-min Rain = 0
KAM3 092350Z 04008KT 06/M08 A3033 RMK A01 T00571079  RH  037%=      5-min Rain = 0
KAM3 092351Z 04009KT 06/M08 A3033 RMK A01 T00561080  RH  037%=      5-min Rain = 0
KAM3 092352Z 04009KT 06/M08 A3033 RMK A01 T00561079  RH  037%=      5-min Rain = 0
KAM3 092353Z 04009KT 06/M08 A3033 RMK A01 T00561079  RH  037%=      5-min Rain = 0
KAM3 092354Z 04009KT 06/M08 A3034 RMK A01 T00561079  RH  037%=      5-min Rain = 0
KAM3 092355Z 04009KT 06/M08 A3034 RMK A01 T00561079  RH  037%=      5-min Rain = 0
KAM3 092356Z 04008KT 06/M08 A3034 RMK A01 T00551079  RH  037%=      5-min Rain = 0
KAM3 092357Z 04008KT 05/M08 A3034 RMK A01 T00541079  RH  038%=      5-min Rain = 0
KAM3 092358Z 04007KT 05/M08 A3034 RMK A01 T00531079  RH  038%=      5-min Rain = 0
KAM3 092359Z 04007KT 05/M08 A3034 RMK A01 T00521079  RH  038%=      5-min Rain = 0
KAM3 100000Z 04007KT 05/M08 A3034 RMK A01 T00511079  RH  038%=      5-min Rain = 0
KAM3 100001Z 04007KT 05/M08 A3034 RMK A01 T00501079  RH  038%=      5-min Rain = 0
KAM3 100002Z 03007KT 05/M08 A3034 RMK A01 T00501080  RH  039%=      5-min Rain = 0
KAM3 100003Z 03007KT 05/M08 A3034 RMK A01 T00491080  RH  039%=      5-min Rain = 0
KAM3 100004Z 03007KT 05/M08 A3034 RMK A01 T00481080  RH  039%=      5-min Rain = 0
KAM3 100005Z 03007KT 05/M08 A3034 RMK A01 T00481080  RH  039%=      5-min Rain = 0
KAM3 100006Z 03007KT 05/M08 A3034 RMK A01 T00481080  RH  039%=      5-min Rain = 0
KAM3 100007Z 03008KT 05/M08 A3034 RMK A01 T00471080  RH  039%=      5-min Rain = 0
KAM3 100008Z 03008KT 05/M08 A3034 RMK A01 T00471079  RH  040%=      5-min Rain = 0
KAM3 100009Z 03008KT 05/M08 A3034 RMK A01 T00461079  RH  040%=      5-min Rain = 0
KAM3 100010Z 03009KT 05/M08 A3034 RMK A01 T00471078  RH  040%=      5-min Rain = 0
KAM3 100011Z 03008KT 05/M08 A3034 RMK A01 T00471077  RH  040%=      5-min Rain = 0
KAM3 100012Z 03008KT 05/M08 A3034 RMK A01 T00471076  RH  040%=      5-min Rain = 0
KAM3 100013Z 03008KT 05/M08 A3034 RMK A01 T00481075  RH  041%=      5-min Rain = 0
KAM3 100014Z 03008KT 05/M08 A3034 RMK A01 T00471075  RH  041%=      5-min Rain = 0
KAM3 100015Z 03008KT 05/M07 A3034 RMK A01 T00471074  RH  041%=      5-min Rain = 0
KAM3 100016Z 03008KT 05/M07 A3034 RMK A01 T00461073  RH  042%=      5-min Rain = 0
KAM3 100017Z 03008KT 05/M07 A3034 RMK A01 T00451073  RH  042%=      5-min Rain = 0
KAM3 100018Z 03008KT 05/M07 A3034 RMK A01 T00451073  RH  042%=      5-min Rain = 0
KAM3 100019Z 03008KT 04/M07 A3034 RMK A01 T00441073  RH  042%=      5-min Rain = 0
KAM3 100020Z 03008KT 04/M07 A3034 RMK A01 T00441073  RH  042%=      5-min Rain = 0
KAM3 100021Z 03007KT 04/M07 A3034 RMK A01 T00441072  RH  042%=      5-min Rain = 0
KAM3 100022Z 03007KT 04/M07 A3034 RMK A01 T00441072  RH  042%=      5-min Rain = 0
KAM3 100023Z 03007KT 05/M07 A3034 RMK A01 T00451072  RH  042%=      5-min Rain = 0
KAM3 100024Z 02007KT 04/M07 A3034 RMK A01 T00441072  RH  042%=      5-min Rain = 0
KAM3 100025Z 02006KT 04/M07 A3035 RMK A01 T00441072  RH  042%=      5-min Rain = 0
KAM3 100026Z 03006KT 04/M07 A3035 RMK A01 T00441072  RH  043%=      5-min Rain = 0
KAM3 100027Z 03006KT 04/M07 A3035 RMK A01 T00441072  RH  043%=      5-min Rain = 0
KAM3 100028Z 03006KT 04/M07 A3035 RMK A01 T00441072  RH  043%=      5-min Rain = 0
KAM3 100029Z 04006KT 04/M07 A3035 RMK A01 T00441072  RH  043%=      5-min Rain = 0
KAM3 100030Z 04006KT 04/M07 A3035 RMK A01 T00441071  RH  043%=      5-min Rain = 0
KAM3 100031Z 04006KT 05/M07 A3035 RMK A01 T00461069  RH  043%=      5-min Rain = 0
KAM3 100032Z 04006KT 05/M07 A3035 RMK A01 T00471069  RH  043%=      5-min Rain = 0
KAM3 100033Z 04006KT 05/M07 A3035 RMK A01 T00491069  RH  042%=      5-min Rain = 0
KAM3 100034Z 04007KT 05/M07 A3035 RMK A01 T00491070  RH  042%=      5-min Rain = 0
KAM3 100035Z 04007KT 05/M07 A3035 RMK A01 T00491070  RH  042%=      5-min Rain = 0
KAM3 100036Z 05006KT 05/M07 A3035 RMK A01 T00471071  RH  042%=      5-min Rain = 0
KAM3 100037Z 05006KT 04/M07 A3035 RMK A01 T00441072  RH  043%=      5-min Rain = 0
KAM3 100038Z 05006KT 04/M07 A3035 RMK A01 T00421071  RH  043%=      5-min Rain = 0
KAM3 100039Z 05006KT 04/M07 A3035 RMK A01 T00411070  RH  044%=      5-min Rain = 0
KAM3 100040Z 05006KT 04/M07 A3035 RMK A01 T00421070  RH  044%=      5-min Rain = 0
KAM3 100041Z 04006KT 04/M07 A3035 RMK A01 T00431069  RH  044%=      5-min Rain = 0
KAM3 100042Z 04006KT 04/M07 A3035 RMK A01 T00441069  RH  044%=      5-min Rain = 0
KAM3 100043Z 04006KT 05/M07 A3035 RMK A01 T00451069  RH  043%=      5-min Rain = 0
KAM3 100044Z 04006KT 05/M07 A3036 RMK A01 T00451069  RH  043%=      5-min Rain = 0
KAM3 100045Z 03006KT 05/M07 A3036 RMK A01 T00461069  RH  043%=      5-min Rain = 0
KAM3 100046Z 03006KT 05/M07 A3036 RMK A01 T00471069  RH  043%=      5-min Rain = 0
KAM3 100047Z 03006KT 05/M07 A3035 RMK A01 T00461069  RH  043%=      5-min Rain = 0
KAM3 100048Z 03006KT 05/M07 A3035 RMK A01 T00461069  RH  043%=      5-min Rain = 0
KAM3 100049Z 04006KT 05/M07 A3035 RMK A01 T00451068  RH  043%=      5-min Rain = 0
KAM3 100050Z 03006KT 05/M07 A3035 RMK A01 T00461068  RH  044%=      5-min Rain = 0
KAM3 100051Z 04006KT 05/M07 A3035 RMK A01 T00451068  RH  044%=      5-min Rain = 0
KAM3 100052Z 04006KT 05/M07 A3035 RMK A01 T00451068  RH  044%=      5-min Rain = 0
KAM3 100053Z 04006KT 04/M07 A3035 RMK A01 T00431068  RH  044%=      5-min Rain = 0
KAM3 100054Z 04006KT 04/M07 A3035 RMK A01 T00431067  RH  045%=      5-min Rain = 0
KAM3 100055Z 04006KT 04/M07 A3035 RMK A01 T00431067  RH  045%=      5-min Rain = 0
KAM3 100056Z 04006KT 04/M07 A3035 RMK A01 T00431066  RH  045%=      5-min Rain = 0
KAM3 100057Z 04006KT 04/M07 A3035 RMK A01 T00431065  RH  045%=      5-min Rain = 0
KAM3 100058Z 04006KT 04/M07 A3035 RMK A01 T00431065  RH  045%=      5-min Rain = 0
KAM3 100059Z 05006KT 04/M06 A3035 RMK A01 T00421064  RH  046%=      5-min Rain = 0
KAM3 100100Z 05006KT 04/M06 A3035 RMK A01 T00421064  RH  046%=      5-min Rain = 0
KAM3 100101Z 05006KT 04/M06 A3035 RMK A01 T00411064  RH  046%=      5-min Rain = 0
KAM3 100102Z 05006KT 04/M06 A3035 RMK A01 T00411064  RH  046%=      5-min Rain = 0
KAM3 100103Z 05006KT 04/M06 A3035 RMK A01 T00411063  RH  047%=      5-min Rain = 0
KAM3 100104Z 05006KT 04/M06 A3035 RMK A01 T00411062  RH  047%=      5-min Rain = 0
KAM3 100105Z 05006KT 04/M06 A3035 RMK A01 T00411062  RH  047%=      5-min Rain = 0
KAM3 100106Z 05006KT 04/M06 A3035 RMK A01 T00411061  RH  047%=      5-min Rain = 0
KAM3 100107Z 05006KT 04/M06 A3035 RMK A01 T00411061  RH  048%=      5-min Rain = 0
KAM3 100108Z 05006KT 04/M06 A3035 RMK A01 T00401061  RH  048%=      5-min Rain = 0
KAM3 100109Z 05007KT 04/M06 A3035 RMK A01 T00401061  RH  048%=      5-min Rain = 0
KAM3 100110Z 05007KT 04/M06 A3035 RMK A01 T00401060  RH  048%=      5-min Rain = 0
KAM3 100111Z 05006KT 04/M06 A3035 RMK A01 T00411060  RH  048%=      5-min Rain = 0
KAM3 100112Z 05006KT 04/M06 A3035 RMK A01 T00411060  RH  048%=      5-min Rain = 0
KAM3 100113Z 05006KT 04/M06 A3035 RMK A01 T00411060  RH  048%=      5-min Rain = 0
KAM3 100114Z 05006KT 04/M06 A3035 RMK A01 T00411061  RH  048%=      5-min Rain = 0
KAM3 100115Z 05006KT 04/M06 A3035 RMK A01 T00411060  RH  048%=      5-min Rain = 0
KAM3 100116Z 05006KT 04/M06 A3035 RMK A01 T00411060  RH  048%=      5-min Rain = 0
KAM3 100117Z 05006KT 04/M06 A3035 RMK A01 T00411060  RH  048%=      5-min Rain = 0
KAM3 100118Z 05006KT 04/M06 A3035 RMK A01 T00411060  RH  048%=      5-min Rain = 0
KAM3 100119Z 05006KT 04/M06 A3035 RMK A01 T00411061  RH  047%=      5-min Rain = 0
KAM3 100120Z 05006KT 04/M06 A3035 RMK A01 T00411061  RH  047%=      5-min Rain = 0
KAM3 100121Z 05006KT 04/M06 A3035 RMK A01 T00421061  RH  047%=      5-min Rain = 0
KAM3 100122Z 04006KT 04/M06 A3035 RMK A01 T00421061  RH  047%=      5-min Rain = 0
KAM3 100123Z 04006KT 04/M06 A3035 RMK A01 T00431061  RH  047%=      5-min Rain = 0
KAM3 100124Z 04007KT 04/M06 A3035 RMK A01 T00431061  RH  047%=      5-min Rain = 0
KAM3 100125Z 04007KT 04/M06 A3035 RMK A01 T00431061  RH  047%=      5-min Rain = 0
KAM3 100126Z 04007KT 04/M06 A3035 RMK A01 T00421061  RH  047%=      5-min Rain = 0
KAM3 100127Z 04007KT 04/M06 A3035 RMK A01 T00421060  RH  047%=      5-min Rain = 0
KAM3 100128Z 03006KT 04/M06 A3035 RMK A01 T00421060  RH  047%=      5-min Rain = 0
KAM3 100129Z 04006KT 04/M06 A3035 RMK A01 T00421060  RH  048%=      5-min Rain = 0
KAM3 100130Z 04006KT 04/M06 A3035 RMK A01 T00421060  RH  048%=      5-min Rain = 0
KAM3 100131Z 04006KT 04/M06 A3035 RMK A01 T00421060  RH  047%=      5-min Rain = 0
KAM3 100132Z 04005KT 04/M06 A3035 RMK A01 T00421060  RH  047%=      5-min Rain = 0
KAM3 100133Z 04005KT 04/M06 A3035 RMK A01 T00411061  RH  047%=      5-min Rain = 0
KAM3 100134Z 05005KT 04/M06 A3035 RMK A01 T00421061  RH  047%=      5-min Rain = 0
KAM3 100135Z 05005KT 04/M06 A3035 RMK A01 T00411062  RH  047%=      5-min Rain = 0
KAM3 100136Z 05005KT 04/M06 A3035 RMK A01 T00411062  RH  047%=      5-min Rain = 0
KAM3 100137Z 05005KT 04/M06 A3035 RMK A01 T00421062  RH  047%=      5-min Rain = 0
KAM3 100138Z 05005KT 04/M06 A3035 RMK A01 T00431062  RH  046%=      5-min Rain = 0
KAM3 100139Z 05005KT 04/M06 A3035 RMK A01 T00441062  RH  046%=      5-min Rain = 0
KAM3 100140Z 05005KT 05/M06 A3035 RMK A01 T00451062  RH  046%=      5-min Rain = 0
KAM3 100141Z 04006KT 05/M06 A3035 RMK A01 T00461062  RH  045%=      5-min Rain = 0
KAM3 100142Z 03006KT 05/M06 A3035 RMK A01 T00471062  RH  045%=      5-min Rain = 0
KAM3 100143Z 03007KT 05/M06 A3035 RMK A01 T00471063  RH  045%=      5-min Rain = 0
KAM3 100144Z 03006KT 05/M06 A3035 RMK A01 T00461064  RH  045%=      5-min Rain = 0
KAM3 100145Z 03006KT 04/M07 A3035 RMK A01 T00431065  RH  045%=      5-min Rain = 0
KAM3 100146Z 03006KT 04/M07 A3036 RMK A01 T00411065  RH  046%=      5-min Rain = 0
KAM3 100147Z 03006KT 04/M06 A3036 RMK A01 T00411064  RH  047%=      5-min Rain = 0
KAM3 100148Z 03006KT 04/M06 A3036 RMK A01 T00421063  RH  046%=      5-min Rain = 0
KAM3 100149Z 03005KT 04/M06 A3036 RMK A01 T00431062  RH  046%=      5-min Rain = 0
KAM3 100150Z 03005KT 04/M06 A3036 RMK A01 T00441062  RH  046%=      5-min Rain = 0
KAM3 100151Z 03005KT 05/M06 A3036 RMK A01 T00451063  RH  046%=      5-min Rain = 0
KAM3 100152Z 03005KT 05/M06 A3036 RMK A01 T00451063  RH  045%=      5-min Rain = 0
KAM3 100153Z 03004KT 05/M06 A3036 RMK A01 T00451063  RH  045%=      5-min Rain = 0
KAM3 100154Z 03004KT 05/M06 A3036 RMK A01 T00451063  RH  045%=      5-min Rain = 0
KAM3 100155Z 03004KT 05/M06 A3036 RMK A01 T00451063  RH  045%=      5-min Rain = 0
KAM3 100156Z 03004KT 05/M06 A3036 RMK A01 T00461063  RH  045%=      5-min Rain = 0
KAM3 100157Z 03004KT 05/M06 A3036 RMK A01 T00461063  RH  045%=      5-min Rain = 0
KAM3 100158Z 03004KT 05/M06 A3036 RMK A01 T00461063  RH  045%=      5-min Rain = 0
KAM3 100159Z 03004KT 05/M06 A3036 RMK A01 T00471063  RH  045%=      5-min Rain = 0
KAM3 100200Z 03004KT 05/M06 A3036 RMK A01 T00471063  RH  045%=      5-min Rain = 0
KAM3 100201Z 03004KT 05/M06 A3036 RMK A01 T00471063  RH  045%=      5-min Rain = 0
KAM3 100202Z 03004KT 05/M06 A3036 RMK A01 T00461063  RH  045%=      5-min Rain = 0
KAM3 100203Z 03004KT 05/M06 A3036 RMK A01 T00451064  RH  045%=      5-min Rain = 0
KAM3 100204Z 03003KT 05/M06 A3036 RMK A01 T00451063  RH  045%=      5-min Rain = 0
KAM3 100205Z 03003KT 04/M06 A3036 RMK A01 T00441063  RH  045%=      5-min Rain = 0
KAM3 100206Z 03003KT 04/M06 A3036 RMK A01 T00441063  RH  045%=      5-min Rain = 0
KAM3 100207Z 02003KT 04/M06 A3036 RMK A01 T00441063  RH  046%=      5-min Rain = 0
KAM3 100208Z 01002KT 04/M06 A3036 RMK A01 T00441063  RH  046%=      5-min Rain = 0
KAM3 100209Z 01002KT 04/M06 A3036 RMK A01 T00431064  RH  046%=      5-min Rain = 0
KAM3 100210Z 00001KT 04/M06 A3036 RMK A01 T00411064  RH  046%=      5-min Rain = 0
KAM3 100211Z 20002KT 04/M07 A3036 RMK A01 T00381065  RH  047%=      5-min Rain = 0
KAM3 100212Z 16002KT 04/M06 A3036 RMK A01 T00371064  RH  048%=      5-min Rain = 0
KAM3 100213Z 15002KT 04/M06 A3036 RMK A01 T00371064  RH  048%=      5-min Rain = 0
KAM3 100214Z 16002KT 04/M06 A3036 RMK A01 T00371063  RH  048%=      5-min Rain = 0
KAM3 100215Z 15002KT 04/M06 A3036 RMK A01 T00371064  RH  048%=      5-min Rain = 0
KAM3 100216Z 15000KT 04/M06 A3036 RMK A01 T00381064  RH  048%=      5-min Rain = 0
KAM3 100217Z 00000KT 04/M06 A3037 RMK A01 T00391063  RH  047%=      5-min Rain = 0
KAM3 100218Z 00000KT 04/M06 A3037 RMK A01 T00391063  RH  047%=      5-min Rain = 0
KAM3 100219Z 00000KT 04/M06 A3037 RMK A01 T00391064  RH  047%=      5-min Rain = 0
KAM3 100220Z 00000KT 04/M06 A3037 RMK A01 T00391064  RH  047%=      5-min Rain = 0
KAM3 100221Z 00000KT 04/M06 A3037 RMK A01 T00391063  RH  047%=      5-min Rain = 0
KAM3 100222Z 00000KT 04/M06 A3037 RMK A01 T00391063  RH  047%=      5-min Rain = 0
KAM3 100223Z 00000KT 04/M06 A3037 RMK A01 T00401064  RH  047%=      5-min Rain = 0
KAM3 100224Z 00000KT 04/M06 A3037 RMK A01 T00401064  RH  047%=      5-min Rain = 0
KAM3 100225Z 00000KT 04/M06 A3037 RMK A01 T00401064  RH  047%=      5-min Rain = 0
KAM3 100226Z 00000KT 04/M06 A3037 RMK A01 T00401064  RH  047%=      5-min Rain = 0
KAM3 100227Z 00000KT 04/M06 A3037 RMK A01 T00411064  RH  047%=      5-min Rain = 0
KAM3 100228Z 00000KT 04/M06 A3037 RMK A01 T00401064  RH  047%=      5-min Rain = 0
KAM3 100229Z 18001KT 04/M06 A3037 RMK A01 T00391064  RH  047%=      5-min Rain = 0
KAM3 100230Z 19002KT 04/M06 A3037 RMK A01 T00371063  RH  048%=      5-min Rain = 0
KAM3 100231Z 19001KT 04/M06 A3037 RMK A01 T00371063  RH  048%=      5-min Rain = 0
KAM3 100232Z 19001KT 04/M06 A3037 RMK A01 T00361063  RH  048%=      5-min Rain = 0
KAM3 100233Z 19001KT 04/M06 A3037 RMK A01 T00361063  RH  048%=      5-min Rain = 0
KAM3 100234Z 19000KT 04/M06 A3037 RMK A01 T00361063  RH  048%=      5-min Rain = 0
KAM3 100235Z 19000KT 04/M06 A3036 RMK A01 T00371063  RH  048%=      5-min Rain = 0
KAM3 100236Z 18000KT 04/M06 A3036 RMK A01 T00371063  RH  048%=      5-min Rain = 0
KAM3 100237Z 18000KT 04/M06 A3036 RMK A01 T00391063  RH  047%=      5-min Rain = 0
KAM3 100238Z 00000KT 04/M06 A3036 RMK A01 T00391063  RH  047%=      5-min Rain = 0
KAM3 100239Z 00000KT 04/M06 A3036 RMK A01 T00391063  RH  047%=      5-min Rain = 0
KAM3 100240Z 00000KT 04/M06 A3036 RMK A01 T00401063  RH  047%=      5-min Rain = 0
KAM3 100241Z 00000KT 04/M06 A3036 RMK A01 T00401063  RH  047%=      5-min Rain = 0
KAM3 100242Z 18001KT 04/M06 A3036 RMK A01 T00401064  RH  047%=      5-min Rain = 0
KAM3 100243Z 18001KT 04/M06 A3036 RMK A01 T00401063  RH  047%=      5-min Rain = 0
KAM3 100244Z 18002KT 04/M06 A3036 RMK A01 T00411063  RH  047%=      5-min Rain = 0
KAM3 100245Z 18002KT 04/M06 A3036 RMK A01 T00411063  RH  047%=      5-min Rain = 0
KAM3 100246Z 18002KT 04/M06 A3037 RMK A01 T00411063  RH  046%=      5-min Rain = 0
KAM3 100247Z 18002KT 04/M06 A3037 RMK A01 T00411064  RH  046%=      5-min Rain = 0
KAM3 100248Z 18002KT 04/M06 A3036 RMK A01 T00391064  RH  047%=      5-min Rain = 0
KAM3 100249Z 18003KT 04/M06 A3036 RMK A01 T00371064  RH  047%=      5-min Rain = 0
KAM3 100250Z 18003KT 04/M06 A3036 RMK A01 T00351064  RH  048%=      5-min Rain = 0
KAM3 100251Z 18003KT 03/M06 A3036 RMK A01 T00341064  RH  049%=      5-min Rain = 0
KAM3 100252Z 18003KT 03/M06 A3036 RMK A01 T00331064  RH  049%=      5-min Rain = 0
KAM3 100253Z 18003KT 03/M06 A3036 RMK A01 T00321064  RH  050%=      5-min Rain = 0
KAM3 100254Z 18003KT 03/M06 A3036 RMK A01 T00311063  RH  050%=      5-min Rain = 0
KAM3 100255Z 18004KT 03/M06 A3036 RMK A01 T00311063  RH  050%=      5-min Rain = 0
KAM3 100256Z 19004KT 03/M06 A3036 RMK A01 T00311064  RH  050%=      5-min Rain = 0
KAM3 100257Z 19004KT 03/M06 A3036 RMK A01 T00311063  RH  050%=      5-min Rain = 0
KAM3 100258Z 19004KT 03/M06 A3036 RMK A01 T00311064  RH  050%=      5-min Rain = 0
KAM3 100259Z 19004KT 03/M06 A3036 RMK A01 T00291064  RH  050%=      5-min Rain = 0
KAM3 100300Z 19004KT 03/M06 A3036 RMK A01 T00291064  RH  051%=      5-min Rain = 0
KAM3 100301Z 19004KT 03/M06 A3036 RMK A01 T00291063  RH  051%=      5-min Rain = 0
KAM3 100302Z 19004KT 03/M06 A3036 RMK A01 T00291063  RH  051%=      5-min Rain = 0
KAM3 100303Z 19004KT 03/M06 A3036 RMK A01 T00291063  RH  051%=      5-min Rain = 0
KAM3 100304Z 19005KT 03/M06 A3036 RMK A01 T00301063  RH  050%=      5-min Rain = 0
KAM3 100305Z 19005KT 03/M06 A3036 RMK A01 T00301064  RH  050%=      5-min Rain = 0
KAM3 100306Z 19005KT 03/M06 A3036 RMK A01 T00301064  RH  050%=      5-min Rain = 0
KAM3 100307Z 19004KT 03/M06 A3036 RMK A01 T00291064  RH  050%=      5-min Rain = 0
KAM3 100308Z 20004KT 03/M06 A3036 RMK A01 T00291064  RH  050%=      5-min Rain = 0
KAM3 100309Z 20004KT 03/M06 A3037 RMK A01 T00281064  RH  051%=      5-min Rain = 0
KAM3 100310Z 20004KT 03/M06 A3037 RMK A01 T00281064  RH  051%=      5-min Rain = 0
KAM3 100311Z 20004KT 03/M07 A3037 RMK A01 T00271065  RH  051%=      5-min Rain = 0
KAM3 100312Z 20004KT 03/M06 A3037 RMK A01 T00271064  RH  051%=      5-min Rain = 0
KAM3 100313Z 20004KT 03/M06 A3037 RMK A01 T00261064  RH  051%=      5-min Rain = 0
KAM3 100314Z 20003KT 03/M07 A3036 RMK A01 T00261065  RH  051%=      5-min Rain = 0
KAM3 100315Z 20003KT 03/M06 A3036 RMK A01 T00261064  RH  051%=      5-min Rain = 0
KAM3 100316Z 19003KT 03/M06 A3036 RMK A01 T00261064  RH  051%=      5-min Rain = 0
KAM3 100317Z 19003KT 03/M06 A3036 RMK A01 T00261064  RH  051%=      5-min Rain = 0
KAM3 100318Z 19003KT 03/M06 A3037 RMK A01 T00271064  RH  051%=      5-min Rain = 0
KAM3 100319Z 19003KT 03/M06 A3037 RMK A01 T00271064  RH  051%=      5-min Rain = 0
KAM3 100320Z 19003KT 03/M06 A3037 RMK A01 T00271064  RH  051%=      5-min Rain = 0
KAM3 100321Z 19003KT 03/M06 A3037 RMK A01 T00281064  RH  051%=      5-min Rain = 0
KAM3 100322Z 19003KT 03/M06 A3037 RMK A01 T00281064  RH  051%=      5-min Rain = 0
KAM3 100323Z 19003KT 03/M06 A3037 RMK A01 T00281064  RH  051%=      5-min Rain = 0
KAM3 100324Z 20004KT 03/M06 A3037 RMK A01 T00281064  RH  051%=      5-min Rain = 0
KAM3 100325Z 20004KT 03/M06 A3037 RMK A01 T00281064  RH  051%=      5-min Rain = 0
KAM3 100326Z 20004KT 03/M06 A3037 RMK A01 T00281064  RH  051%=      5-min Rain = 0
KAM3 100327Z 21005KT 03/M06 A3037 RMK A01 T00281064  RH  051%=      5-min Rain = 0
KAM3 100328Z 21005KT 03/M07 A3037 RMK A01 T00271065  RH  051%=      5-min Rain = 0
KAM3 100329Z 21005KT 03/M07 A3037 RMK A01 T00261065  RH  051%=      5-min Rain = 0
KAM3 100330Z 21005KT 02/M07 A3037 RMK A01 T00241065  RH  052%=      5-min Rain = 0
KAM3 100331Z 21005KT 02/M07 A3037 RMK A01 T00231065  RH  052%=      5-min Rain = 0
KAM3 100332Z 21005KT 02/M07 A3037 RMK A01 T00201066  RH  053%=      5-min Rain = 0
KAM3 100333Z 21006KT 02/M07 A3037 RMK A01 T00181067  RH  053%=      5-min Rain = 0
KAM3 100334Z 21006KT 02/M07 A3037 RMK A01 T00161067  RH  054%=      5-min Rain = 0
KAM3 100335Z 21006KT 01/M07 A3037 RMK A01 T00141067  RH  055%=      5-min Rain = 0
KAM3 100336Z 21006KT 01/M07 A3037 RMK A01 T00121067  RH  056%=      5-min Rain = 0
KAM3 100337Z 22005KT 01/M07 A3037 RMK A01 T00111067  RH  056%=      5-min Rain = 0
KAM3 100338Z 21005KT 01/M07 A3037 RMK A01 T00101066  RH  057%=      5-min Rain = 0
KAM3 100339Z 21005KT 01/M07 A3037 RMK A01 T00101066  RH  057%=      5-min Rain = 0
KAM3 100340Z 22005KT 01/M07 A3037 RMK A01 T00101066  RH  057%=      5-min Rain = 0
KAM3 100341Z 21005KT 01/M07 A3037 RMK A01 T00101066  RH  057%=      5-min Rain = 0
KAM3 100342Z 21005KT 01/M07 A3037 RMK A01 T00101066  RH  057%=      5-min Rain = 0
KAM3 100343Z 21005KT 01/M07 A3037 RMK A01 T00101066  RH  057%=      5-min Rain = 0
KAM3 100344Z 21005KT 01/M07 A3037 RMK A01 T00111066  RH  057%=      5-min Rain = 0
KAM3 100345Z 21005KT 01/M07 A3037 RMK A01 T00101066  RH  057%=      5-min Rain = 0
KAM3 100346Z 21005KT 01/M07 A3037 RMK A01 T00091067  RH  057%=      5-min Rain = 0
KAM3 100347Z 21006KT 01/M07 A3037 RMK A01 T00081067  RH  057%=      5-min Rain = 0
KAM3 100348Z 21006KT 01/M07 A3037 RMK A01 T00071067  RH  058%=      5-min Rain = 0
KAM3 100349Z 21006KT 01/M07 A3037 RMK A01 T00061067  RH  058%=      5-min Rain = 0
KAM3 100350Z 21006KT 01/M07 A3037 RMK A01 T00061067  RH  058%=      5-min Rain = 0
KAM3 100351Z 21006KT 01/M07 A3037 RMK A01 T00061066  RH  058%=      5-min Rain = 0
KAM3 100352Z 21006KT 01/M07 A3037 RMK A01 T00061066  RH  058%=      5-min Rain = 0
KAM3 100353Z 21005KT 01/M07 A3037 RMK A01 T00061066  RH  058%=      5-min Rain = 0
KAM3 100354Z 21005KT 01/M07 A3037 RMK A01 T00051067  RH  058%=      5-min Rain = 0
KAM3 100355Z 21005KT 01/M07 A3037 RMK A01 T00051068  RH  058%=      5-min Rain = 0
KAM3 100356Z 21005KT 01/M07 A3037 RMK A01 T00051067  RH  058%=      5-min Rain = 0
KAM3 100357Z 21005KT 01/M07 A3037 RMK A01 T00061067  RH  058%=      5-min Rain = 0
KAM3 100358Z 22005KT 01/M07 A3037 RMK A01 T00061067  RH  058%=      5-min Rain = 0
KAM3 100359Z 21005KT 01/M07 A3037 RMK A01 T00071067  RH  058%=      5-min Rain = 0
KAM3 100400Z 22005KT 01/M07 A3037 RMK A01 T00071067  RH  057%=      5-min Rain = 0
KAM3 100401Z 22006KT 01/M07 A3037 RMK A01 T00071068  RH  057%=      5-min Rain = 0
KAM3 100402Z 22005KT 01/M07 A3037 RMK A01 T00071068  RH  057%=      5-min Rain = 0
KAM3 100403Z 22005KT 01/M07 A3037 RMK A01 T00061068  RH  057%=      5-min Rain = 0
KAM3 100404Z 22005KT 01/M07 A3037 RMK A01 T00051068  RH  058%=      5-min Rain = 0
KAM3 100405Z 22005KT 00/M07 A3037 RMK A01 T00041069  RH  058%=      5-min Rain = 0
KAM3 100406Z 23005KT 00/M07 A3037 RMK A01 T00021070  RH  058%=      5-min Rain = 0
KAM3 100407Z 23005KT 00/M07 A3037 RMK A01 T00011070  RH  059%=      5-min Rain = 0
KAM3 100408Z 23005KT 00/07 A3037 RMK A01 T00000-70  RH  059%=      5-min Rain = 0
KAM3 100409Z 23005KT M00/M07 A3037 RMK A01 T10011070  RH  060%=      5-min Rain = 0
KAM3 100410Z 23005KT M00/M07 A3037 RMK A01 T10011070  RH  060%=      5-min Rain = 0
KAM3 100411Z 23006KT M00/M07 A3037 RMK A01 T10021070  RH  060%=      5-min Rain = 0
KAM3 100412Z 23005KT M00/M07 A3037 RMK A01 T10031070  RH  061%=      5-min Rain = 0
KAM3 100413Z 23006KT M00/M07 A3037 RMK A01 T10031070  RH  061%=      5-min Rain = 0
KAM3 100414Z 22006KT M00/M07 A3037 RMK A01 T10031070  RH  061%=      5-min Rain = 0
KAM3 100415Z 22006KT M00/M07 A3037 RMK A01 T10041071  RH  061%=      5-min Rain = 0
KAM3 100416Z 22006KT M01/M07 A3037 RMK A01 T10051071  RH  061%=      5-min Rain = 0
KAM3 100417Z 22006KT M01/M07 A3037 RMK A01 T10061071  RH  061%=      5-min Rain = 0
KAM3 100418Z 22006KT M01/M07 A3037 RMK A01 T10071071  RH  062%=      5-min Rain = 0
KAM3 100419Z 22005KT M01/M07 A3037 RMK A01 T10081071  RH  062%=      5-min Rain = 0
KAM3 100420Z 22006KT M01/M07 A3037 RMK A01 T10081071  RH  063%=      5-min Rain = 0
KAM3 100421Z 22006KT M01/M07 A3037 RMK A01 T10081070  RH  063%=      5-min Rain = 0
KAM3 100422Z 22006KT M01/M07 A3037 RMK A01 T10081070  RH  063%=      5-min Rain = 0
KAM3 100423Z 22006KT M01/M07 A3037 RMK A01 T10081070  RH  063%=      5-min Rain = 0
KAM3 100424Z 22006KT M01/M07 A3037 RMK A01 T10081070  RH  063%=      5-min Rain = 0
KAM3 100425Z 22006KT M01/M07 A3037 RMK A01 T10071070  RH  063%=      5-min Rain = 0
KAM3 100426Z 22006KT M01/M07 A3037 RMK A01 T10071070  RH  062%=      5-min Rain = 0
KAM3 100427Z 22006KT M01/M07 A3037 RMK A01 T10071070  RH  062%=      5-min Rain = 0
KAM3 100428Z 22006KT M01/M07 A3037 RMK A01 T10061070  RH  062%=      5-min Rain = 0
KAM3 100429Z 22007KT M01/M07 A3037 RMK A01 T10061070  RH  062%=      5-min Rain = 0
KAM3 100430Z 22007KT M01/M07 A3037 RMK A01 T10061070  RH  062%=      5-min Rain = 0
KAM3 100431Z 22006KT M01/M07 A3037 RMK A01 T10061071  RH  061%=      5-min Rain = 0
KAM3 100432Z 22006KT M01/M07 A3037 RMK A01 T10061071  RH  062%=      5-min Rain = 0
KAM3 100433Z 22007KT M01/M07 A3037 RMK A01 T10081072  RH  062%=      5-min Rain = 0
KAM3 100434Z 22007KT M01/M07 A3037 RMK A01 T10101072  RH  062%=      5-min Rain = 0
KAM3 100435Z 22007KT M01/M07 A3037 RMK A01 T10111072  RH  063%=      5-min Rain = 0
KAM3 100436Z 22007KT M01/M07 A3037 RMK A01 T10121072  RH  064%=      5-min Rain = 0
KAM3 100437Z 22007KT M01/M07 A3037 RMK A01 T10131072  RH  064%=      5-min Rain = 0
KAM3 100438Z 22008KT M01/M07 A3037 RMK A01 T10141072  RH  065%=      5-min Rain = 0
KAM3 100439Z 22007KT M01/M07 A3037 RMK A01 T10141072  RH  065%=      5-min Rain = 0
KAM3 100440Z 22007KT M01/M07 A3037 RMK A01 T10131071  RH  065%=      5-min Rain = 0
KAM3 100441Z 22007KT M01/M07 A3037 RMK A01 T10121071  RH  064%=      5-min Rain = 0
KAM3 100442Z 22006KT M01/M07 A3037 RMK A01 T10111070  RH  064%=      5-min Rain = 0
KAM3 100443Z 22006KT M01/M07 A3037 RMK A01 T10111071  RH  064%=      5-min Rain = 0
KAM3 100444Z 22006KT M01/M07 A3037 RMK A01 T10111070  RH  064%=      5-min Rain = 0
KAM3 100445Z 22006KT M01/M07 A3037 RMK A01 T10111071  RH  064%=      5-min Rain = 0
KAM3 100446Z 22006KT M01/M07 A3037 RMK A01 T10101070  RH  064%=      5-min Rain = 0
KAM3 100447Z 22006KT M01/M07 A3037 RMK A01 T10101070  RH  063%=      5-min Rain = 0
KAM3 100448Z 21006KT M01/M07 A3037 RMK A01 T10091070  RH  063%=      5-min Rain = 0
KAM3 100449Z 22006KT M01/M07 A3037 RMK A01 T10091071  RH  063%=      5-min Rain = 0
KAM3 100450Z 22006KT M01/M07 A3036 RMK A01 T10091071  RH  063%=      5-min Rain = 0
KAM3 100451Z 22006KT M01/M07 A3036 RMK A01 T10091071  RH  063%=      5-min Rain = 0
KAM3 100452Z 22006KT M01/M07 A3036 RMK A01 T10091071  RH  063%=      5-min Rain = 0
KAM3 100453Z 22006KT M01/M07 A3036 RMK A01 T10091071  RH  063%=      5-min Rain = 0
KAM3 100454Z 22006KT M01/M07 A3036 RMK A01 T10091071  RH  063%=      5-min Rain = 0
KAM3 100455Z 22006KT M01/M07 A3036 RMK A01 T10091071  RH  063%=      5-min Rain = 0
KAM3 100456Z 22007KT M01/M07 A3036 RMK A01 T10101071  RH  063%=      5-min Rain = 0
KAM3 100457Z 22006KT M01/M07 A3036 RMK A01 T10101071  RH  064%=      5-min Rain = 0
KAM3 100458Z 22006KT M01/M07 A3036 RMK A01 T10111071  RH  064%=      5-min Rain = 0
KAM3 100459Z 22006KT M01/M07 A3036 RMK A01 T10111071  RH  064%=      5-min Rain = 0
KAM3 100500Z 21007KT M01/M07 A3036 RMK A01 T10121071  RH  064%=      5-min Rain = 0
KAM3 100501Z 21007KT M01/M07 A3036 RMK A01 T10131071  RH  064%=      5-min Rain = 0
KAM3 100502Z 21007KT M01/M07 A3036 RMK A01 T10141072  RH  065%=      5-min Rain = 0
KAM3 100503Z 21007KT M01/M07 A3036 RMK A01 T10141072  RH  065%=      5-min Rain = 0
KAM3 100504Z 21007KT M02/M07 A3036 RMK A01 T10151072  RH  065%=      5-min Rain = 0
KAM3 100505Z 21007KT M02/M07 A3036 RMK A01 T10151072  RH  065%=      5-min Rain = 0
KAM3 100506Z 21007KT M02/M07 A3036 RMK A01 T10161072  RH  066%=      5-min Rain = 0
KAM3 100507Z 21007KT M02/M07 A3036 RMK A01 T10161072  RH  066%=      5-min Rain = 0
KAM3 100508Z 21007KT M02/M07 A3036 RMK A01 T10161071  RH  066%=      5-min Rain = 0
KAM3 100509Z 21006KT M02/M07 A3036 RMK A01 T10161071  RH  066%=      5-min Rain = 0
KAM3 100510Z 21006KT M02/M07 A3036 RMK A01 T10161071  RH  066%=      5-min Rain = 0
KAM3 100511Z 21006KT M02/M07 A3036 RMK A01 T10151070  RH  066%=      5-min Rain = 0
KAM3 100512Z 22006KT M02/M07 A3036 RMK A01 T10151071  RH  066%=      5-min Rain = 0
KAM3 100513Z 22005KT M01/M07 A3036 RMK A01 T10141070  RH  066%=      5-min Rain = 0
KAM3 100514Z 21005KT M01/M07 A3036 RMK A01 T10141070  RH  066%=      5-min Rain = 0
KAM3 100515Z 21005KT M01/M07 A3036 RMK A01 T10131070  RH  065%=      5-min Rain = 0
KAM3 100516Z 21005KT M01/M07 A3036 RMK A01 T10121069  RH  065%=      5-min Rain = 0
KAM3 100517Z 21005KT M01/M07 A3036 RMK A01 T10121069  RH  065%=      5-min Rain = 0
KAM3 100518Z 21004KT M01/M07 A3036 RMK A01 T10111069  RH  065%=      5-min Rain = 0
KAM3 100519Z 21005KT M01/M07 A3036 RMK A01 T10111069  RH  065%=      5-min Rain = 0
KAM3 100520Z 21005KT M01/M07 A3036 RMK A01 T10111069  RH  065%=      5-min Rain = 0
KAM3 100521Z 21005KT M01/M07 A3036 RMK A01 T10101068  RH  064%=      5-min Rain = 0
KAM3 100522Z 22005KT M01/M07 A3036 RMK A01 T10091068  RH  064%=      5-min Rain = 0
KAM3 100523Z 22005KT M01/M07 A3036 RMK A01 T10091069  RH  064%=      5-min Rain = 0
KAM3 100524Z 22005KT M01/M07 A3036 RMK A01 T10081069  RH  064%=      5-min Rain = 0
KAM3 100525Z 22005KT M01/M07 A3036 RMK A01 T10081069  RH  064%=      5-min Rain = 0
KAM3 100526Z 22005KT M01/M07 A3036 RMK A01 T10081069  RH  064%=      5-min Rain = 0
KAM3 100527Z 22005KT M01/M07 A3036 RMK A01 T10081069  RH  064%=      5-min Rain = 0
KAM3 100528Z 22005KT M01/M07 A3036 RMK A01 T10081069  RH  063%=      5-min Rain = 0
KAM3 100529Z 22005KT M01/M07 A3036 RMK A01 T10091069  RH  064%=      5-min Rain = 0
KAM3 100530Z 22005KT M01/M07 A3036 RMK A01 T10091069  RH  064%=      5-min Rain = 0
KAM3 100531Z 22005KT M01/M07 A3036 RMK A01 T10101069  RH  064%=      5-min Rain = 0
KAM3 100532Z 22005KT M01/M07 A3036 RMK A01 T10101069  RH  064%=      5-min Rain = 0
KAM3 100533Z 23006KT M01/M07 A3036 RMK A01 T10111069  RH  065%=      5-min Rain = 0
KAM3 100534Z 23006KT M01/M07 A3036 RMK A01 T10111069  RH  065%=      5-min Rain = 0
KAM3 100535Z 23006KT M01/M07 A3036 RMK A01 T10121070  RH  065%=      5-min Rain = 0
KAM3 100536Z 23006KT M01/M07 A3036 RMK A01 T10121069  RH  065%=      5-min Rain = 0
KAM3 100537Z 23005KT M01/M07 A3036 RMK A01 T10121069  RH  065%=      5-min Rain = 0
KAM3 100538Z 22005KT M01/M07 A3036 RMK A01 T10121069  RH  065%=      5-min Rain = 0
KAM3 100539Z 23005KT M01/M07 A3036 RMK A01 T10121069  RH  065%=      5-min Rain = 0
KAM3 100540Z 23005KT M01/M07 A3036 RMK A01 T10111069  RH  065%=      5-min Rain = 0
KAM3 100541Z 23004KT M01/M07 A3036 RMK A01 T10091067  RH  065%=      5-min Rain = 0
KAM3 100542Z 23005KT M01/M07 A3036 RMK A01 T10091068  RH  064%=      5-min Rain = 0
KAM3 100543Z 23005KT M01/M07 A3036 RMK A01 T10081068  RH  064%=      5-min Rain = 0
KAM3 100544Z 23005KT M01/M07 A3036 RMK A01 T10081068  RH  064%=      5-min Rain = 0
KAM3 100545Z 23005KT M01/M07 A3036 RMK A01 T10081068  RH  064%=      5-min Rain = 0
KAM3 100546Z 23006KT M01/M07 A3036 RMK A01 T10091068  RH  064%=      5-min Rain = 0
KAM3 100547Z 23006KT M01/M07 A3036 RMK A01 T10091068  RH  064%=      5-min Rain = 0
KAM3 100548Z 23006KT M01/M07 A3036 RMK A01 T10091068  RH  064%=      5-min Rain = 0
KAM3 100549Z 23007KT M01/M07 A3036 RMK A01 T10091069  RH  064%=      5-min Rain = 0
KAM3 100550Z 23007KT M01/M07 A3036 RMK A01 T10091069  RH  064%=      5-min Rain = 0
KAM3 100551Z 24007KT M01/M07 A3036 RMK A01 T10101069  RH  064%=      5-min Rain = 0
KAM3 100552Z 23007KT M01/M07 A3036 RMK A01 T10121070  RH  065%=      5-min Rain = 0
KAM3 100553Z 23006KT M01/M07 A3036 RMK A01 T10131070  RH  065%=      5-min Rain = 0
KAM3 100554Z 23007KT M01/M07 A3036 RMK A01 T10141070  RH  066%=      5-min Rain = 0
KAM3 100555Z 23007KT M01/M07 A3036 RMK A01 T10141069  RH  066%=      5-min Rain = 0
KAM3 100556Z 23006KT M01/M07 A3036 RMK A01 T10141069  RH  066%=      5-min Rain = 0
KAM3 100557Z 23007KT M02/M07 A3035 RMK A01 T10151070  RH  066%=      5-min Rain = 0
KAM3 100558Z 24006KT M02/M07 A3035 RMK A01 T10161070  RH  067%=      5-min Rain = 0
KAM3 100559Z 24006KT M02/M07 A3035 RMK A01 T10151069  RH  067%=      5-min Rain = 0

Page generated in 0.1747 seconds.